Wetterdaten: Samstag, 02.12.2017
Datum Zeit Temp. I. Temp. A. Feuchte I. Feuchte A. Luftdruck Regen Wind Richtung Richtung Taupunkt Windchill
02.12.2017 00:01 23,0 °C 0,4 °C 46 % 93 % 1019,8 hPa 0,0 l/m² 0,0 km/h (0 Bft) S-SW 202 ° -0,6 °C 0,4 °C
02.12.2017 00:03 23,0 °C 0,4 °C 46 % 93 % 1019,8 hPa 0,0 l/m² 0,0 km/h (0 Bft) S-SW 202 ° -0,6 °C 0,4 °C
02.12.2017 00:05 23,0 °C 0,4 °C 46 % 93 % 1019,8 hPa 0,0 l/m² 0,0 km/h (0 Bft) S-SW 202 ° -0,6 °C 0,4 °C
02.12.2017 00:07 23,0 °C 0,4 °C 46 % 93 % 1019,9 hPa 0,0 l/m² 0,0 km/h (0 Bft) S-SW 202 ° -0,6 °C 0,4 °C
02.12.2017 00:09 23,0 °C 0,4 °C 46 % 93 % 1020,0 hPa 0,0 l/m² 0,0 km/h (0 Bft) S-SW 202 ° -0,6 °C 0,4 °C
02.12.2017 00:11 23,0 °C 0,4 °C 46 % 93 % 1019,9 hPa 0,0 l/m² 0,0 km/h (0 Bft) S-SW 202 ° -0,6 °C 0,4 °C
02.12.2017 00:13 23,0 °C 0,3 °C 46 % 93 % 1020,0 hPa 0,0 l/m² 0,0 km/h (0 Bft) S-SW 202 ° -0,7 °C 0,3 °C
02.12.2017 00:15 23,0 °C 0,3 °C 46 % 93 % 1020,0 hPa 0,0 l/m² 0,0 km/h (0 Bft) S-SW 202 ° -0,7 °C 0,3 °C
02.12.2017 00:17 23,0 °C 0,3 °C 46 % 93 % 1019,9 hPa 0,0 l/m² 0,0 km/h (0 Bft) S-SW 202 ° -0,7 °C 0,3 °C
02.12.2017 00:19 23,0 °C 0,3 °C 46 % 93 % 1020,1 hPa 0,0 l/m² 0,0 km/h (0 Bft) S-SW 202 ° -0,7 °C 0,3 °C
02.12.2017 00:21 23,0 °C 0,3 °C 46 % 93 % 1020,1 hPa 0,0 l/m² 0,0 km/h (0 Bft) S-SW 202 ° -0,7 °C 0,3 °C
02.12.2017 00:23 23,0 °C 0,3 °C 46 % 93 % 1020,1 hPa 0,0 l/m² 0,0 km/h (0 Bft) S-SW 202 ° -0,7 °C 0,3 °C
02.12.2017 00:25 23,0 °C 0,2 °C 46 % 93 % 1020,2 hPa 0,0 l/m² 0,0 km/h (0 Bft) S-SW 202 ° -0,8 °C 0,2 °C
02.12.2017 00:27 23,0 °C 0,2 °C 46 % 93 % 1020,2 hPa 0,0 l/m² 0,0 km/h (0 Bft) S-SW 202 ° -0,8 °C 0,2 °C
02.12.2017 00:29 23,0 °C 0,2 °C 46 % 93 % 1020,1 hPa 0,0 l/m² 0,0 km/h (0 Bft) S-SW 202 ° -0,8 °C 0,2 °C
02.12.2017 00:31 23,0 °C 0,2 °C 46 % 93 % 1020,2 hPa 0,0 l/m² 0,0 km/h (0 Bft) S-SW 202 ° -0,8 °C 0,2 °C
02.12.2017 00:33 23,0 °C 0,2 °C 46 % 93 % 1020,2 hPa 0,0 l/m² 0,0 km/h (0 Bft) S-SW 202 ° -0,8 °C 0,2 °C
02.12.2017 00:35 23,0 °C 0,2 °C 46 % 93 % 1020,1 hPa 0,0 l/m² 0,0 km/h (0 Bft) S-SW 202 ° -0,8 °C 0,2 °C
02.12.2017 00:37 23,0 °C 0,2 °C 46 % 93 % 1020,0 hPa 0,0 l/m² 0,0 km/h (0 Bft) S-SW 202 ° -0,8 °C 0,2 °C
02.12.2017 00:39 23,0 °C 0,2 °C 46 % 93 % 1020,0 hPa 0,0 l/m² 0,0 km/h (0 Bft) S-SW 202 ° -0,8 °C 0,2 °C
02.12.2017 00:41 23,0 °C 0,2 °C 46 % 93 % 1020,1 hPa 0,0 l/m² 0,0 km/h (0 Bft) S-SW 202 ° -0,8 °C 0,2 °C
02.12.2017 00:43 23,0 °C 0,2 °C 46 % 93 % 1020,1 hPa 0,0 l/m² 0,0 km/h (0 Bft) S-SW 202 ° -0,8 °C 0,2 °C
02.12.2017 00:45 23,0 °C 0,2 °C 46 % 93 % 1020,1 hPa 0,0 l/m² 0,0 km/h (0 Bft) S-SW 202 ° -0,8 °C 0,2 °C
02.12.2017 00:47 23,0 °C 0,2 °C 46 % 93 % 1020,1 hPa 0,0 l/m² 0,0 km/h (0 Bft) S-SW 202 ° -0,8 °C 0,2 °C
02.12.2017 00:49 23,0 °C 0,2 °C 46 % 93 % 1020,1 hPa 0,0 l/m² 0,0 km/h (0 Bft) S-SW 202 ° -0,8 °C 0,2 °C
02.12.2017 00:51 23,0 °C 0,2 °C 46 % 93 % 1020,2 hPa 0,0 l/m² 0,0 km/h (0 Bft) S-SW 202 ° -0,8 °C 0,2 °C
02.12.2017 00:53 23,0 °C 0,2 °C 46 % 93 % 1020,1 hPa 0,0 l/m² 0,0 km/h (0 Bft) S-SW 202 ° -0,8 °C 0,2 °C
02.12.2017 00:55 23,0 °C 0,2 °C 46 % 93 % 1020,1 hPa 0,0 l/m² 0,0 km/h (0 Bft) S-SW 202 ° -0,8 °C 0,2 °C
02.12.2017 00:57 23,0 °C 0,2 °C 46 % 93 % 1020,3 hPa 0,0 l/m² 0,0 km/h (0 Bft) S-SW 202 ° -0,8 °C 0,2 °C
02.12.2017 00:59 23,0 °C 0,2 °C 46 % 93 % 1020,2 hPa 0,0 l/m² 0,0 km/h (0 Bft) S-SW 202 ° -0,8 °C 0,2 °C
02.12.2017 01:01 23,0 °C 0,2 °C 46 % 93 % 1020,2 hPa 0,0 l/m² 0,0 km/h (0 Bft) S-SW 202 ° -0,8 °C 0,2 °C
02.12.2017 01:03 23,0 °C 0,2 °C 46 % 93 % 1020,2 hPa 0,0 l/m² 0,0 km/h (0 Bft) S-SW 202 ° -0,8 °C 0,2 °C
02.12.2017 01:05 23,0 °C 0,2 °C 46 % 93 % 1020,2 hPa 0,0 l/m² 2,2 km/h (1 Bft) S-SW 202 ° -0,8 °C 0,2 °C
02.12.2017 01:07 23,0 °C 0,2 °C 46 % 93 % 1020,3 hPa 0,0 l/m² 1,8 km/h (1 Bft) S-SW 202 ° -0,8 °C 0,2 °C
02.12.2017 01:09 23,0 °C 0,2 °C 46 % 93 % 1020,4 hPa 0,0 l/m² 0,0 km/h (0 Bft) S-SW 202 ° -0,8 °C 0,2 °C
02.12.2017 01:11 23,0 °C 0,2 °C 46 % 93 % 1020,4 hPa 0,0 l/m² 0,0 km/h (0 Bft) S-SW 202 ° -0,8 °C 0,2 °C
02.12.2017 01:13 23,0 °C 0,2 °C 46 % 93 % 1020,3 hPa 0,0 l/m² 0,0 km/h (0 Bft) S-SW 202 ° -0,8 °C 0,2 °C
02.12.2017 01:15 23,0 °C 0,2 °C 46 % 93 % 1020,4 hPa 0,0 l/m² 0,0 km/h (0 Bft) S-SW 202 ° -0,8 °C 0,2 °C
02.12.2017 01:17 23,0 °C 0,2 °C 46 % 94 % 1020,4 hPa 0,0 l/m² 0,0 km/h (0 Bft) S-SW 202 ° -0,6 °C 0,2 °C
02.12.2017 01:19 23,0 °C 0,2 °C 46 % 94 % 1020,4 hPa 0,0 l/m² 0,0 km/h (0 Bft) S-SW 202 ° -0,6 °C 0,2 °C
02.12.2017 01:21 23,0 °C 0,2 °C 46 % 93 % 1020,5 hPa 0,0 l/m² 0,0 km/h (0 Bft) S-SW 202 ° -0,8 °C 0,2 °C
02.12.2017 01:23 23,0 °C 0,2 °C 46 % 94 % 1020,6 hPa 0,0 l/m² 0,0 km/h (0 Bft) S-SW 202 ° -0,6 °C 0,2 °C
02.12.2017 01:25 23,0 °C 0,2 °C 46 % 93 % 1020,5 hPa 0,0 l/m² 0,0 km/h (0 Bft) S-SW 202 ° -0,8 °C 0,2 °C
02.12.2017 01:27 23,0 °C 0,2 °C 46 % 93 % 1020,5 hPa 0,0 l/m² 0,0 km/h (0 Bft) S-SW 202 ° -0,8 °C 0,2 °C
02.12.2017 01:29 23,0 °C 0,2 °C 46 % 93 % 1020,6 hPa 0,0 l/m² 0,0 km/h (0 Bft) S-SW 202 ° -0,8 °C 0,2 °C
02.12.2017 01:31 23,0 °C 0,2 °C 46 % 94 % 1020,5 hPa 0,0 l/m² 0,0 km/h (0 Bft) S-SW 202 ° -0,6 °C 0,2 °C
02.12.2017 01:33 23,0 °C 0,2 °C 46 % 93 % 1020,6 hPa 0,0 l/m² 0,0 km/h (0 Bft) S-SW 202 ° -0,8 °C 0,2 °C
02.12.2017 01:35 23,0 °C 0,2 °C 46 % 94 % 1020,6 hPa 0,0 l/m² 0,0 km/h (0 Bft) S-SW 202 ° -0,6 °C 0,2 °C
02.12.2017 01:37 23,0 °C 0,2 °C 46 % 94 % 1020,6 hPa 0,0 l/m² 0,0 km/h (0 Bft) S-SW 202 ° -0,6 °C 0,2 °C
02.12.2017 01:39 23,0 °C 0,2 °C 46 % 94 % 1020,6 hPa 0,0 l/m² 0,0 km/h (0 Bft) S-SW 202 ° -0,6 °C 0,2 °C
02.12.2017 01:41 23,0 °C 0,2 °C 46 % 94 % 1020,6 hPa 0,0 l/m² 0,0 km/h (0 Bft) S-SW 202 ° -0,6 °C 0,2 °C
02.12.2017 01:43 23,0 °C 0,2 °C 46 % 94 % 1020,7 hPa 0,0 l/m² 0,0 km/h (0 Bft) S-SW 202 ° -0,6 °C 0,2 °C
02.12.2017 01:45 23,0 °C 0,2 °C 46 % 94 % 1020,7 hPa 0,0 l/m² 0,0 km/h (0 Bft) S-SW 202 ° -0,6 °C 0,2 °C
02.12.2017 01:47 23,0 °C 0,2 °C 46 % 94 % 1020,6 hPa 0,0 l/m² 0,0 km/h (0 Bft) S-SW 202 ° -0,6 °C 0,2 °C
02.12.2017 01:49 23,0 °C 0,2 °C 46 % 94 % 1020,8 hPa 0,0 l/m² 0,0 km/h (0 Bft) S-SW 202 ° -0,6 °C 0,2 °C
02.12.2017 01:51 23,0 °C 0,2 °C 46 % 94 % 1020,7 hPa 0,0 l/m² 0,0 km/h (0 Bft) S-SW 202 ° -0,6 °C 0,2 °C
02.12.2017 01:53 23,0 °C 0,2 °C 46 % 94 % 1020,7 hPa 0,0 l/m² 0,0 km/h (0 Bft) S-SW 202 ° -0,6 °C 0,2 °C
02.12.2017 01:55 23,0 °C 0,2 °C 46 % 94 % 1020,8 hPa 0,0 l/m² 0,0 km/h (0 Bft) S-SW 202 ° -0,6 °C 0,2 °C
02.12.2017 01:57 23,0 °C 0,2 °C 46 % 94 % 1020,8 hPa 0,0 l/m² 0,0 km/h (0 Bft) S-SW 202 ° -0,6 °C 0,2 °C
02.12.2017 01:59 23,0 °C 0,2 °C 46 % 94 % 1020,8 hPa 0,0 l/m² 0,0 km/h (0 Bft) S-SW 202 ° -0,6 °C 0,2 °C
02.12.2017 02:01 23,0 °C 0,2 °C 46 % 94 % 1020,8 hPa 0,0 l/m² 0,0 km/h (0 Bft) S-SW 202 ° -0,6 °C 0,2 °C
02.12.2017 02:03 23,1 °C 0,2 °C 46 % 94 % 1020,9 hPa 0,0 l/m² 0,0 km/h (0 Bft) S-SW 202 ° -0,6 °C 0,2 °C
02.12.2017 02:05 23,0 °C 0,2 °C 46 % 94 % 1020,9 hPa 0,0 l/m² 0,0 km/h (0 Bft) S-SW 202 ° -0,6 °C 0,2 °C
02.12.2017 02:07 23,0 °C 0,2 °C 46 % 94 % 1020,9 hPa 0,0 l/m² 0,0 km/h (0 Bft) S-SW 202 ° -0,6 °C 0,2 °C
02.12.2017 02:09 23,0 °C 0,2 °C 46 % 94 % 1020,9 hPa 0,0 l/m² 0,0 km/h (0 Bft) S-SW 202 ° -0,6 °C 0,2 °C
02.12.2017 02:11 23,0 °C 0,2 °C 46 % 94 % 1020,9 hPa 0,0 l/m² 0,0 km/h (0 Bft) S-SW 202 ° -0,6 °C 0,2 °C
02.12.2017 02:13 23,1 °C 0,2 °C 46 % 94 % 1020,9 hPa 0,0 l/m² 0,0 km/h (0 Bft) S-SW 202 ° -0,6 °C 0,2 °C
02.12.2017 02:15 23,0 °C 0,2 °C 46 % 94 % 1020,9 hPa 0,0 l/m² 0,0 km/h (0 Bft) S-SW 202 ° -0,6 °C 0,2 °C
02.12.2017 02:17 23,1 °C 0,2 °C 46 % 94 % 1020,9 hPa 0,0 l/m² 2,5 km/h (1 Bft) S-SW 202 ° -0,6 °C 0,2 °C
02.12.2017 02:19 23,1 °C 0,1 °C 46 % 94 % 1020,8 hPa 0,0 l/m² 0,0 km/h (0 Bft) S-SW 202 ° -0,7 °C 0,1 °C
02.12.2017 02:21 23,1 °C 0,1 °C 46 % 94 % 1020,8 hPa 0,0 l/m² 0,0 km/h (0 Bft) S-SW 202 ° -0,7 °C 0,1 °C
02.12.2017 02:23 23,0 °C 0,1 °C 46 % 94 % 1020,9 hPa 0,0 l/m² 0,0 km/h (0 Bft) S-SW 202 ° -0,7 °C 0,1 °C
02.12.2017 02:25 23,1 °C 0,1 °C 46 % 94 % 1020,9 hPa 0,0 l/m² 0,0 km/h (0 Bft) S-SW 202 ° -0,7 °C 0,1 °C
02.12.2017 02:27 23,1 °C 0,1 °C 46 % 94 % 1021,0 hPa 0,0 l/m² 0,0 km/h (0 Bft) S-SW 202 ° -0,7 °C 0,1 °C
02.12.2017 02:29 23,1 °C 0,1 °C 46 % 94 % 1021,0 hPa 0,0 l/m² 0,0 km/h (0 Bft) S-SW 202 ° -0,7 °C 0,1 °C
02.12.2017 02:31 23,0 °C 0,1 °C 46 % 94 % 1021,1 hPa 0,0 l/m² 0,0 km/h (0 Bft) S-SW 202 ° -0,7 °C 0,1 °C
02.12.2017 02:33 23,1 °C 0,1 °C 46 % 94 % 1021,0 hPa 0,0 l/m² 2,2 km/h (1 Bft) S-SW 202 ° -0,7 °C 0,1 °C
02.12.2017 02:35 23,1 °C 0,1 °C 46 % 94 % 1020,9 hPa 0,0 l/m² 0,0 km/h (0 Bft) S-SW 202 ° -0,7 °C 0,1 °C
02.12.2017 02:37 23,1 °C 0,1 °C 46 % 94 % 1021,1 hPa 0,0 l/m² 0,0 km/h (0 Bft) S-SW 202 ° -0,7 °C 0,1 °C
02.12.2017 02:39 23,1 °C 0,1 °C 46 % 94 % 1021,1 hPa 0,0 l/m² 0,0 km/h (0 Bft) S-SW 202 ° -0,7 °C 0,1 °C
02.12.2017 02:41 23,1 °C 0,1 °C 46 % 94 % 1021,0 hPa 0,0 l/m² 2,5 km/h (1 Bft) S-SW 202 ° -0,7 °C 0,1 °C
02.12.2017 02:43 23,1 °C 0,2 °C 46 % 94 % 1021,1 hPa 0,0 l/m² 6,1 km/h (2 Bft) S-SW 202 ° -0,6 °C 0,2 °C
02.12.2017 02:45 23,1 °C 0,1 °C 46 % 94 % 1021,2 hPa 0,0 l/m² 3,2 km/h (1 Bft) S-SW 202 ° -0,7 °C 0,1 °C
02.12.2017 02:47 23,1 °C 0,1 °C 46 % 94 % 1021,2 hPa 0,0 l/m² 0,0 km/h (0 Bft) S-SW 202 ° -0,7 °C 0,1 °C
02.12.2017 02:49 23,1 °C 0,1 °C 46 % 94 % 1021,3 hPa 0,0 l/m² 2,5 km/h (1 Bft) S-SW 202 ° -0,7 °C 0,1 °C
02.12.2017 02:51 23,1 °C 0,1 °C 46 % 94 % 1021,2 hPa 0,0 l/m² 2,5 km/h (1 Bft) S-SW 202 ° -0,7 °C 0,1 °C
02.12.2017 02:53 23,1 °C 0,1 °C 46 % 94 % 1021,3 hPa 0,0 l/m² 0,0 km/h (0 Bft) S-SW 202 ° -0,7 °C 0,1 °C
02.12.2017 02:55 23,1 °C 0,1 °C 46 % 94 % 1021,3 hPa 0,0 l/m² 0,0 km/h (0 Bft) S-SW 202 ° -0,7 °C 0,1 °C
02.12.2017 02:57 23,1 °C 0,1 °C 46 % 94 % 1021,4 hPa 0,0 l/m² 0,0 km/h (0 Bft) S-SW 202 ° -0,7 °C 0,1 °C
02.12.2017 02:59 23,1 °C 0,1 °C 46 % 94 % 1021,3 hPa 0,0 l/m² 0,0 km/h (0 Bft) S-SW 202 ° -0,7 °C 0,1 °C
02.12.2017 03:01 23,1 °C 0,1 °C 46 % 94 % 1021,4 hPa 0,0 l/m² 0,0 km/h (0 Bft) S-SW 202 ° -0,7 °C 0,1 °C
02.12.2017 03:03 23,1 °C 0,1 °C 46 % 94 % 1021,4 hPa 0,0 l/m² 0,0 km/h (0 Bft) S-SW 202 ° -0,7 °C 0,1 °C
02.12.2017 03:05 23,1 °C 0,1 °C 46 % 94 % 1021,4 hPa 0,0 l/m² 0,0 km/h (0 Bft) S-SW 202 ° -0,7 °C 0,1 °C
02.12.2017 03:07 23,1 °C 0,1 °C 46 % 94 % 1021,4 hPa 0,0 l/m² 0,0 km/h (0 Bft) S-SW 202 ° -0,7 °C 0,1 °C
02.12.2017 03:09 23,1 °C 0,1 °C 46 % 94 % 1021,4 hPa 0,0 l/m² 0,0 km/h (0 Bft) S-SW 202 ° -0,7 °C 0,1 °C
02.12.2017 03:11 23,1 °C 0,1 °C 46 % 94 % 1021,5 hPa 0,0 l/m² 0,0 km/h (0 Bft) S-SW 202 ° -0,7 °C 0,1 °C
02.12.2017 03:13 23,1 °C 0,1 °C 46 % 94 % 1021,5 hPa 0,0 l/m² 1,8 km/h (1 Bft) S-SW 202 ° -0,7 °C 0,1 °C
02.12.2017 03:15 23,1 °C 0,1 °C 46 % 94 % 1021,4 hPa 0,0 l/m² 0,0 km/h (0 Bft) S-SW 202 ° -0,7 °C 0,1 °C
02.12.2017 03:17 23,1 °C 0,1 °C 46 % 94 % 1021,5 hPa 0,0 l/m² 3,2 km/h (1 Bft) S-SW 202 ° -0,7 °C 0,1 °C
02.12.2017 03:19 23,1 °C 0,1 °C 46 % 94 % 1021,4 hPa 0,0 l/m² 4,0 km/h (1 Bft) S-SW 202 ° -0,7 °C 0,1 °C
02.12.2017 03:21 23,1 °C 0,1 °C 46 % 94 % 1021,5 hPa 0,0 l/m² 4,0 km/h (1 Bft) S-SW 202 ° -0,7 °C 0,1 °C
02.12.2017 03:23 23,1 °C 0,1 °C 46 % 94 % 1021,5 hPa 0,0 l/m² 4,7 km/h (1 Bft) S-SW 202 ° -0,7 °C 0,1 °C
02.12.2017 03:25 23,1 °C 0,1 °C 46 % 94 % 1021,5 hPa 0,0 l/m² 3,2 km/h (1 Bft) S-SW 202 ° -0,7 °C 0,1 °C
02.12.2017 03:27 23,0 °C 0,1 °C 46 % 94 % 1021,5 hPa 0,0 l/m² 3,6 km/h (1 Bft) S-SW 202 ° -0,7 °C 0,1 °C
02.12.2017 03:29 23,1 °C 0,1 °C 46 % 94 % 1021,5 hPa 0,0 l/m² 0,0 km/h (0 Bft) S-SW 202 ° -0,7 °C 0,1 °C
02.12.2017 03:31 23,1 °C 0,1 °C 46 % 94 % 1021,6 hPa 0,0 l/m² 3,2 km/h (1 Bft) S-SW 202 ° -0,7 °C 0,1 °C
02.12.2017 03:33 23,1 °C 0,1 °C 46 % 94 % 1021,6 hPa 0,0 l/m² 2,5 km/h (1 Bft) S-SW 202 ° -0,7 °C 0,1 °C
02.12.2017 03:35 23,0 °C 0,1 °C 46 % 94 % 1021,7 hPa 0,0 l/m² 2,5 km/h (1 Bft) S-SW 202 ° -0,7 °C 0,1 °C
02.12.2017 03:37 23,0 °C 0,1 °C 46 % 94 % 1021,7 hPa 0,0 l/m² 2,2 km/h (1 Bft) S-SW 202 ° -0,7 °C 0,1 °C
02.12.2017 03:39 23,1 °C 0,1 °C 46 % 94 % 1021,6 hPa 0,0 l/m² 0,0 km/h (0 Bft) S-SW 202 ° -0,7 °C 0,1 °C
02.12.2017 03:41 23,0 °C 0,1 °C 46 % 94 % 1021,7 hPa 0,0 l/m² 1,8 km/h (1 Bft) S-SW 202 ° -0,7 °C 0,1 °C
02.12.2017 03:43 23,0 °C 0,1 °C 46 % 94 % 1021,6 hPa 0,0 l/m² 0,0 km/h (0 Bft) S-SW 202 ° -0,7 °C 0,1 °C
02.12.2017 03:45 23,0 °C 0,1 °C 46 % 94 % 1021,7 hPa 0,0 l/m² 0,0 km/h (0 Bft) S-SW 202 ° -0,7 °C 0,1 °C
02.12.2017 03:47 23,0 °C 0,1 °C 46 % 94 % 1021,7 hPa 0,0 l/m² 0,0 km/h (0 Bft) S-SW 202 ° -0,7 °C 0,1 °C
02.12.2017 03:49 23,0 °C 0,1 °C 46 % 94 % 1021,8 hPa 0,0 l/m² 0,0 km/h (0 Bft) S-SW 202 ° -0,7 °C 0,1 °C
02.12.2017 03:51 23,0 °C 0,1 °C 46 % 94 % 1021,8 hPa 0,0 l/m² 0,0 km/h (0 Bft) S-SW 202 ° -0,7 °C 0,1 °C
02.12.2017 03:53 23,0 °C 0,1 °C 46 % 94 % 1021,7 hPa 0,0 l/m² 0,0 km/h (0 Bft) S-SW 202 ° -0,7 °C 0,1 °C
02.12.2017 03:55 23,0 °C 0,1 °C 46 % 94 % 1021,8 hPa 0,0 l/m² 0,0 km/h (0 Bft) S-SW 202 ° -0,7 °C 0,1 °C
02.12.2017 03:57 23,0 °C 0,1 °C 46 % 94 % 1021,8 hPa 0,0 l/m² 0,0 km/h (0 Bft) S-SW 202 ° -0,7 °C 0,1 °C
02.12.2017 03:59 23,0 °C 0,1 °C 46 % 94 % 1021,9 hPa 0,0 l/m² 0,0 km/h (0 Bft) S-SW 202 ° -0,7 °C 0,1 °C
02.12.2017 04:01 23,0 °C 0,1 °C 46 % 94 % 1021,9 hPa 0,0 l/m² 0,0 km/h (0 Bft) S-SW 202 ° -0,7 °C 0,1 °C
02.12.2017 04:03 23,0 °C 0,2 °C 46 % 94 % 1021,9 hPa 0,0 l/m² 0,0 km/h (0 Bft) S-SW 202 ° -0,6 °C 0,2 °C
02.12.2017 04:05 23,0 °C 0,2 °C 46 % 94 % 1021,9 hPa 0,0 l/m² 0,0 km/h (0 Bft) S-SW 202 ° -0,6 °C 0,2 °C
02.12.2017 04:07 23,0 °C 0,1 °C 46 % 94 % 1021,9 hPa 0,0 l/m² 0,0 km/h (0 Bft) S-SW 202 ° -0,7 °C 0,1 °C
02.12.2017 04:09 23,0 °C 0,1 °C 46 % 94 % 1022,0 hPa 0,0 l/m² 0,0 km/h (0 Bft) S-SW 202 ° -0,7 °C 0,1 °C
02.12.2017 04:11 23,0 °C 0,1 °C 46 % 94 % 1022,0 hPa 0,0 l/m² 0,0 km/h (0 Bft) S-SW 202 ° -0,7 °C 0,1 °C
02.12.2017 04:13 23,0 °C 0,2 °C 46 % 94 % 1022,0 hPa 0,0 l/m² 2,2 km/h (1 Bft) S-SW 202 ° -0,6 °C 0,2 °C
02.12.2017 04:15 23,1 °C 0,1 °C 46 % 94 % 1022,1 hPa 0,0 l/m² 0,0 km/h (0 Bft) S-SW 202 ° -0,7 °C 0,1 °C
02.12.2017 04:17 23,0 °C 0,1 °C 46 % 94 % 1022,0 hPa 0,0 l/m² 0,0 km/h (0 Bft) S-SW 202 ° -0,7 °C 0,1 °C
02.12.2017 04:19 23,0 °C 0,1 °C 46 % 94 % 1022,0 hPa 0,0 l/m² 0,0 km/h (0 Bft) S-SW 202 ° -0,7 °C 0,1 °C
02.12.2017 04:21 23,0 °C 0,1 °C 46 % 94 % 1022,0 hPa 0,0 l/m² 0,0 km/h (0 Bft) S-SW 202 ° -0,7 °C 0,1 °C
02.12.2017 04:23 23,0 °C 0,1 °C 46 % 94 % 1022,0 hPa 0,0 l/m² 0,0 km/h (0 Bft) S-SW 202 ° -0,7 °C 0,1 °C
02.12.2017 04:25 23,1 °C 0,1 °C 46 % 94 % 1022,0 hPa 0,0 l/m² 0,0 km/h (0 Bft) S-SW 202 ° -0,7 °C 0,1 °C
02.12.2017 04:27 23,0 °C 0,1 °C 46 % 94 % 1022,1 hPa 0,0 l/m² 0,0 km/h (0 Bft) S-SW 202 ° -0,7 °C 0,1 °C
02.12.2017 04:29 23,1 °C 0,1 °C 46 % 94 % 1022,1 hPa 0,0 l/m² 0,0 km/h (0 Bft) S-SW 202 ° -0,7 °C 0,1 °C
02.12.2017 04:31 23,0 °C 0,1 °C 46 % 94 % 1022,0 hPa 0,0 l/m² 0,0 km/h (0 Bft) S-SW 202 ° -0,7 °C 0,1 °C
02.12.2017 04:33 23,0 °C 0,1 °C 46 % 94 % 1022,1 hPa 0,0 l/m² 0,0 km/h (0 Bft) S-SW 202 ° -0,7 °C 0,1 °C
02.12.2017 04:35 23,1 °C 0,1 °C 46 % 94 % 1022,1 hPa 0,0 l/m² 0,0 km/h (0 Bft) S-SW 202 ° -0,7 °C 0,1 °C
02.12.2017 04:37 23,1 °C 0,1 °C 46 % 94 % 1022,1 hPa 0,0 l/m² 0,0 km/h (0 Bft) S-SW 202 ° -0,7 °C 0,1 °C
02.12.2017 04:39 23,1 °C 0,1 °C 46 % 94 % 1022,1 hPa 0,0 l/m² 0,0 km/h (0 Bft) S-SW 202 ° -0,7 °C 0,1 °C
02.12.2017 04:41 23,1 °C 0,1 °C 46 % 94 % 1022,1 hPa 0,0 l/m² 0,0 km/h (0 Bft) S-SW 202 ° -0,7 °C 0,1 °C
02.12.2017 04:43 23,1 °C 0,1 °C 46 % 94 % 1022,3 hPa 0,0 l/m² 0,0 km/h (0 Bft) S-SW 202 ° -0,7 °C 0,1 °C
02.12.2017 04:45 23,1 °C 0,1 °C 46 % 94 % 1022,5 hPa 0,0 l/m² 0,0 km/h (0 Bft) S-SW 202 ° -0,7 °C 0,1 °C
02.12.2017 04:47 23,1 °C 0,1 °C 46 % 94 % 1022,4 hPa 0,0 l/m² 0,0 km/h (0 Bft) S-SW 202 ° -0,7 °C 0,1 °C
02.12.2017 04:49 23,1 °C 0,1 °C 46 % 94 % 1022,6 hPa 0,0 l/m² 0,0 km/h (0 Bft) S-SW 202 ° -0,7 °C 0,1 °C
02.12.2017 04:51 23,1 °C 0,1 °C 46 % 94 % 1022,4 hPa 0,0 l/m² 0,0 km/h (0 Bft) S-SW 202 ° -0,7 °C 0,1 °C
02.12.2017 04:53 23,1 °C 0,1 °C 46 % 94 % 1022,5 hPa 0,0 l/m² 0,0 km/h (0 Bft) S-SW 202 ° -0,7 °C 0,1 °C
02.12.2017 04:55 23,1 °C 0,1 °C 46 % 94 % 1022,4 hPa 0,0 l/m² 0,0 km/h (0 Bft) S-SW 202 ° -0,7 °C 0,1 °C
02.12.2017 04:57 23,1 °C 0,1 °C 46 % 94 % 1022,4 hPa 0,0 l/m² 0,0 km/h (0 Bft) S-SW 202 ° -0,7 °C 0,1 °C
02.12.2017 04:59 23,1 °C 0,1 °C 46 % 94 % 1022,4 hPa 0,0 l/m² 0,0 km/h (0 Bft) S-SW 202 ° -0,7 °C 0,1 °C
02.12.2017 05:01 23,1 °C 0,1 °C 46 % 94 % 1022,5 hPa 0,0 l/m² 0,0 km/h (0 Bft) S-SW 202 ° -0,7 °C 0,1 °C
02.12.2017 05:03 23,1 °C 0,1 °C 46 % 94 % 1022,5 hPa 0,0 l/m² 2,5 km/h (1 Bft) S-SW 202 ° -0,7 °C 0,1 °C
02.12.2017 05:05 23,1 °C 0,1 °C 46 % 94 % 1022,5 hPa 0,0 l/m² 2,5 km/h (1 Bft) S-SW 202 ° -0,7 °C 0,1 °C
02.12.2017 05:07 23,1 °C 0,1 °C 46 % 94 % 1022,5 hPa 0,0 l/m² 0,0 km/h (0 Bft) S-SW 202 ° -0,7 °C 0,1 °C
02.12.2017 05:09 23,1 °C 0,1 °C 46 % 94 % 1022,5 hPa 0,0 l/m² 0,0 km/h (0 Bft) S-SW 202 ° -0,7 °C 0,1 °C
02.12.2017 05:11 23,1 °C 0,1 °C 46 % 94 % 1022,5 hPa 0,0 l/m² 0,0 km/h (0 Bft) S-SW 202 ° -0,7 °C 0,1 °C
02.12.2017 05:13 23,1 °C 0,1 °C 46 % 94 % 1022,6 hPa 0,0 l/m² 0,0 km/h (0 Bft) S-SW 202 ° -0,7 °C 0,1 °C
02.12.2017 05:15 23,1 °C 0,1 °C 46 % 94 % 1022,6 hPa 0,0 l/m² 1,8 km/h (1 Bft) S-SW 202 ° -0,7 °C 0,1 °C
02.12.2017 05:17 23,1 °C 0,1 °C 46 % 94 % 1022,5 hPa 0,0 l/m² 0,0 km/h (0 Bft) S-SW 202 ° -0,7 °C 0,1 °C
02.12.2017 05:19 23,1 °C 0,1 °C 46 % 94 % 1022,6 hPa 0,0 l/m² 0,0 km/h (0 Bft) S-SW 202 ° -0,7 °C 0,1 °C
02.12.2017 05:21 23,1 °C 0,1 °C 46 % 94 % 1022,6 hPa 0,0 l/m² 0,0 km/h (0 Bft) S-SW 202 ° -0,7 °C 0,1 °C
02.12.2017 05:23 23,1 °C 0,1 °C 46 % 94 % 1022,5 hPa 0,0 l/m² 0,0 km/h (0 Bft) S-SW 202 ° -0,7 °C 0,1 °C
02.12.2017 05:25 23,1 °C 0,1 °C 46 % 94 % 1022,5 hPa 0,0 l/m² 2,2 km/h (1 Bft) S-SW 202 ° -0,7 °C 0,1 °C
02.12.2017 05:27 23,1 °C 0,1 °C 46 % 94 % 1022,6 hPa 0,0 l/m² 2,9 km/h (1 Bft) S-SW 202 ° -0,7 °C 0,1 °C
02.12.2017 05:29 23,1 °C 0,1 °C 46 % 94 % 1022,7 hPa 0,0 l/m² 0,0 km/h (0 Bft) S-SW 202 ° -0,7 °C 0,1 °C
02.12.2017 05:31 23,1 °C 0,1 °C 46 % 94 % 1022,6 hPa 0,0 l/m² 0,0 km/h (0 Bft) S-SW 202 ° -0,7 °C 0,1 °C
02.12.2017 05:33 23,1 °C 0,1 °C 46 % 94 % 1022,7 hPa 0,0 l/m² 0,0 km/h (0 Bft) S-SW 202 ° -0,7 °C 0,1 °C
02.12.2017 05:35 23,1 °C 0,1 °C 46 % 94 % 1022,6 hPa 0,0 l/m² 0,0 km/h (0 Bft) S-SW 202 ° -0,7 °C 0,1 °C
02.12.2017 05:37 23,1 °C 0,1 °C 46 % 94 % 1022,7 hPa 0,0 l/m² 0,0 km/h (0 Bft) S-SW 202 ° -0,7 °C 0,1 °C
02.12.2017 05:39 23,1 °C 0,1 °C 46 % 94 % 1022,6 hPa 0,0 l/m² 0,0 km/h (0 Bft) S-SW 202 ° -0,7 °C 0,1 °C
02.12.2017 05:41 23,1 °C 0,1 °C 46 % 94 % 1022,6 hPa 0,0 l/m² 0,0 km/h (0 Bft) S-SW 202 ° -0,7 °C 0,1 °C
02.12.2017 05:43 23,1 °C 0,1 °C 46 % 94 % 1022,6 hPa 0,0 l/m² 0,0 km/h (0 Bft) S-SW 202 ° -0,7 °C 0,1 °C
02.12.2017 05:45 23,1 °C 0,1 °C 46 % 94 % 1022,6 hPa 0,0 l/m² 0,0 km/h (0 Bft) S-SW 202 ° -0,7 °C 0,1 °C
02.12.2017 05:47 23,1 °C 0,1 °C 46 % 94 % 1022,6 hPa 0,0 l/m² 0,0 km/h (0 Bft) S-SW 202 ° -0,7 °C 0,1 °C
02.12.2017 05:49 23,1 °C 0,1 °C 46 % 94 % 1022,7 hPa 0,0 l/m² 0,0 km/h (0 Bft) S-SW 202 ° -0,7 °C 0,1 °C
02.12.2017 05:51 23,1 °C 0,1 °C 46 % 94 % 1022,6 hPa 0,0 l/m² 0,0 km/h (0 Bft) S-SW 202 ° -0,7 °C 0,1 °C
02.12.2017 05:53 23,1 °C 0,1 °C 46 % 94 % 1022,6 hPa 0,0 l/m² 0,0 km/h (0 Bft) S-SW 202 ° -0,7 °C 0,1 °C
02.12.2017 05:55 23,1 °C 0,1 °C 46 % 94 % 1022,7 hPa 0,0 l/m² 0,0 km/h (0 Bft) S-SW 202 ° -0,7 °C 0,1 °C
02.12.2017 05:57 23,1 °C 0,1 °C 46 % 94 % 1022,6 hPa 0,0 l/m² 0,0 km/h (0 Bft) S-SW 202 ° -0,7 °C 0,1 °C
02.12.2017 05:59 23,1 °C 0,1 °C 46 % 94 % 1022,7 hPa 0,0 l/m² 0,0 km/h (0 Bft) S-SW 202 ° -0,7 °C 0,1 °C
02.12.2017 06:01 23,1 °C 0,1 °C 46 % 94 % 1022,7 hPa 0,0 l/m² 0,0 km/h (0 Bft) S-SW 202 ° -0,7 °C 0,1 °C
02.12.2017 06:03 23,1 °C 0,1 °C 46 % 94 % 1022,7 hPa 0,0 l/m² 2,2 km/h (1 Bft) S-SW 202 ° -0,7 °C 0,1 °C
02.12.2017 06:05 23,1 °C 0,1 °C 46 % 94 % 1022,7 hPa 0,0 l/m² 0,0 km/h (0 Bft) S-SW 202 ° -0,7 °C 0,1 °C
02.12.2017 06:07 23,1 °C 0,1 °C 46 % 94 % 1022,8 hPa 0,0 l/m² 0,0 km/h (0 Bft) S-SW 202 ° -0,7 °C 0,1 °C
02.12.2017 06:09 23,1 °C 0,1 °C 46 % 94 % 1022,8 hPa 0,0 l/m² 0,0 km/h (0 Bft) S-SW 202 ° -0,7 °C 0,1 °C
02.12.2017 06:11 23,1 °C 0,1 °C 46 % 94 % 1022,7 hPa 0,0 l/m² 0,0 km/h (0 Bft) S-SW 202 ° -0,7 °C 0,1 °C
02.12.2017 06:13 23,1 °C 0,1 °C 46 % 94 % 1022,6 hPa 0,0 l/m² 0,0 km/h (0 Bft) S-SW 202 ° -0,7 °C 0,1 °C
02.12.2017 06:15 23,1 °C 0,1 °C 46 % 94 % 1022,8 hPa 0,0 l/m² 0,0 km/h (0 Bft) S-SW 202 ° -0,7 °C 0,1 °C
02.12.2017 06:17 23,1 °C 0,1 °C 46 % 94 % 1022,8 hPa 0,0 l/m² 0,0 km/h (0 Bft) S-SW 202 ° -0,7 °C 0,1 °C
02.12.2017 06:19 23,1 °C 0,1 °C 46 % 94 % 1022,8 hPa 0,0 l/m² 0,0 km/h (0 Bft) S-SW 202 ° -0,7 °C 0,1 °C
02.12.2017 06:21 23,1 °C 0,1 °C 46 % 94 % 1022,7 hPa 0,0 l/m² 0,0 km/h (0 Bft) S-SW 202 ° -0,7 °C 0,1 °C
02.12.2017 06:23 23,1 °C 0,1 °C 46 % 94 % 1022,7 hPa 0,0 l/m² 0,0 km/h (0 Bft) S-SW 202 ° -0,7 °C 0,1 °C
02.12.2017 06:25 23,1 °C 0,1 °C 46 % 94 % 1022,6 hPa 0,0 l/m² 0,0 km/h (0 Bft) S-SW 202 ° -0,7 °C 0,1 °C
02.12.2017 06:27 23,1 °C 0,1 °C 46 % 94 % 1022,7 hPa 0,0 l/m² 0,0 km/h (0 Bft) S-SW 202 ° -0,7 °C 0,1 °C
02.12.2017 06:29 23,1 °C 0,1 °C 46 % 94 % 1022,7 hPa 0,0 l/m² 0,0 km/h (0 Bft) S-SW 202 ° -0,7 °C 0,1 °C
02.12.2017 06:31 23,1 °C 0,1 °C 46 % 94 % 1022,7 hPa 0,0 l/m² 0,0 km/h (0 Bft) S-SW 202 ° -0,7 °C 0,1 °C
02.12.2017 06:33 23,1 °C 0,1 °C 46 % 94 % 1022,7 hPa 0,0 l/m² 0,0 km/h (0 Bft) S-SW 202 ° -0,7 °C 0,1 °C
02.12.2017 06:35 23,1 °C 0,1 °C 46 % 94 % 1022,7 hPa 0,0 l/m² 0,0 km/h (0 Bft) S-SW 202 ° -0,7 °C 0,1 °C
02.12.2017 06:37 23,1 °C 0,1 °C 46 % 94 % 1022,7 hPa 0,0 l/m² 0,0 km/h (0 Bft) S-SW 202 ° -0,7 °C 0,1 °C
02.12.2017 06:39 23,1 °C 0,1 °C 46 % 94 % 1022,7 hPa 0,0 l/m² 2,2 km/h (1 Bft) S-SW 202 ° -0,7 °C 0,1 °C
02.12.2017 06:41 23,1 °C 0,1 °C 46 % 94 % 1022,7 hPa 0,0 l/m² 0,0 km/h (0 Bft) S-SW 202 ° -0,7 °C 0,1 °C
02.12.2017 06:43 23,1 °C 0,1 °C 46 % 94 % 1022,7 hPa 0,0 l/m² 0,0 km/h (0 Bft) S-SW 202 ° -0,7 °C 0,1 °C
02.12.2017 06:45 23,1 °C 0,1 °C 46 % 94 % 1022,8 hPa 0,0 l/m² 3,2 km/h (1 Bft) S-SW 202 ° -0,7 °C 0,1 °C
02.12.2017 06:47 23,1 °C 0,1 °C 46 % 94 % 1022,8 hPa 0,0 l/m² 2,5 km/h (1 Bft) S-SW 202 ° -0,7 °C 0,1 °C
02.12.2017 06:49 23,1 °C 0,1 °C 46 % 94 % 1022,7 hPa 0,0 l/m² 2,9 km/h (1 Bft) S-SW 202 ° -0,7 °C 0,1 °C
02.12.2017 06:51 23,1 °C 0,1 °C 46 % 94 % 1022,8 hPa 0,0 l/m² 2,9 km/h (1 Bft) S-SW 202 ° -0,7 °C 0,1 °C
02.12.2017 06:53 23,1 °C 0,1 °C 46 % 94 % 1022,8 hPa 0,0 l/m² 2,9 km/h (1 Bft) S-SW 202 ° -0,7 °C 0,1 °C
02.12.2017 06:55 23,1 °C 0,1 °C 46 % 94 % 1022,9 hPa 0,0 l/m² 0,0 km/h (0 Bft) S-SW 202 ° -0,7 °C 0,1 °C
02.12.2017 06:57 23,1 °C 0,1 °C 46 % 94 % 1022,8 hPa 0,0 l/m² 0,0 km/h (0 Bft) S-SW 202 ° -0,7 °C 0,1 °C
02.12.2017 06:59 23,1 °C 0,1 °C 46 % 94 % 1022,8 hPa 0,0 l/m² 0,0 km/h (0 Bft) S-SW 202 ° -0,7 °C 0,1 °C
02.12.2017 07:01 23,1 °C 0,1 °C 46 % 94 % 1022,8 hPa 0,0 l/m² 0,0 km/h (0 Bft) S-SW 202 ° -0,7 °C 0,1 °C
02.12.2017 07:03 23,1 °C 0,1 °C 46 % 94 % 1022,9 hPa 0,0 l/m² 0,0 km/h (0 Bft) S-SW 202 ° -0,7 °C 0,1 °C
02.12.2017 07:05 23,1 °C 0,1 °C 46 % 94 % 1023,0 hPa 0,0 l/m² 0,0 km/h (0 Bft) S-SW 202 ° -0,7 °C 0,1 °C
02.12.2017 07:07 23,1 °C 0,1 °C 46 % 94 % 1023,1 hPa 0,0 l/m² 0,0 km/h (0 Bft) S-SW 202 ° -0,7 °C 0,1 °C
02.12.2017 07:09 23,1 °C 0,1 °C 46 % 94 % 1023,2 hPa 0,0 l/m² 0,0 km/h (0 Bft) S-SW 202 ° -0,7 °C 0,1 °C
02.12.2017 07:11 23,1 °C 0,1 °C 46 % 94 % 1023,3 hPa 0,0 l/m² 0,0 km/h (0 Bft) S-SW 202 ° -0,7 °C 0,1 °C
02.12.2017 07:13 23,1 °C 0,1 °C 46 % 94 % 1023,2 hPa 0,0 l/m² 0,0 km/h (0 Bft) S-SW 202 ° -0,7 °C 0,1 °C
02.12.2017 07:15 23,1 °C 0,1 °C 46 % 94 % 1023,3 hPa 0,0 l/m² 0,0 km/h (0 Bft) S-SW 202 ° -0,7 °C 0,1 °C
02.12.2017 07:17 23,1 °C 0,1 °C 46 % 94 % 1023,3 hPa 0,0 l/m² 0,0 km/h (0 Bft) S-SW 202 ° -0,7 °C 0,1 °C
02.12.2017 07:19 23,1 °C 0,1 °C 46 % 94 % 1023,4 hPa 0,0 l/m² 2,9 km/h (1 Bft) S-SW 202 ° -0,7 °C 0,1 °C
02.12.2017 07:21 23,1 °C 0,1 °C 46 % 94 % 1023,3 hPa 0,0 l/m² 0,0 km/h (0 Bft) S-SW 202 ° -0,7 °C 0,1 °C
02.12.2017 07:23 23,1 °C 0,1 °C 46 % 94 % 1023,4 hPa 0,0 l/m² 0,0 km/h (0 Bft) S-SW 202 ° -0,7 °C 0,1 °C
02.12.2017 07:25 23,1 °C 0,0 °C 46 % 94 % 1023,2 hPa 0,0 l/m² 1,8 km/h (1 Bft) S-SW 202 ° -0,8 °C 0,0 °C
02.12.2017 07:27 23,1 °C 0,0 °C 46 % 94 % 1023,3 hPa 0,0 l/m² 0,0 km/h (0 Bft) S-SW 202 ° -0,8 °C 0,0 °C
02.12.2017 07:29 23,1 °C 0,0 °C 46 % 94 % 1023,3 hPa 0,0 l/m² 0,0 km/h (0 Bft) S-SW 202 ° -0,8 °C 0,0 °C
02.12.2017 07:31 23,1 °C 0,0 °C 46 % 94 % 1023,2 hPa 0,0 l/m² 0,0 km/h (0 Bft) S-SW 202 ° -0,8 °C 0,0 °C
02.12.2017 07:33 23,1 °C -0,1 °C 46 % 94 % 1023,3 hPa 0,0 l/m² 2,9 km/h (1 Bft) S-SW 202 ° -0,9 °C -0,1 °C
02.12.2017 07:35 23,1 °C -0,1 °C 46 % 94 % 1023,4 hPa 0,0 l/m² 0,0 km/h (0 Bft) S-SW 202 ° -0,9 °C -0,1 °C
02.12.2017 07:37 23,1 °C -0,1 °C 46 % 94 % 1023,4 hPa 0,0 l/m² 0,0 km/h (0 Bft) S-SW 202 ° -0,9 °C -0,1 °C
02.12.2017 07:39 23,1 °C -0,1 °C 46 % 94 % 1023,4 hPa 0,0 l/m² 0,0 km/h (0 Bft) S-SW 202 ° -0,9 °C -0,1 °C
02.12.2017 07:41 23,1 °C -0,1 °C 46 % 94 % 1023,4 hPa 0,0 l/m² 0,0 km/h (0 Bft) S-SW 202 ° -0,9 °C -0,1 °C
02.12.2017 07:43 23,1 °C -0,1 °C 46 % 94 % 1023,4 hPa 0,0 l/m² 0,0 km/h (0 Bft) S-SW 202 ° -0,9 °C -0,1 °C
02.12.2017 07:45 23,1 °C -0,1 °C 46 % 94 % 1023,4 hPa 0,0 l/m² 0,0 km/h (0 Bft) S-SW 202 ° -0,9 °C -0,1 °C
02.12.2017 07:47 23,1 °C -0,1 °C 46 % 94 % 1023,4 hPa 0,0 l/m² 0,0 km/h (0 Bft) S-SW 202 ° -0,9 °C -0,1 °C
02.12.2017 07:49 23,1 °C -0,1 °C 46 % 94 % 1023,5 hPa 0,0 l/m² 0,0 km/h (0 Bft) S-SW 202 ° -0,9 °C -0,1 °C
02.12.2017 07:51 23,1 °C -0,1 °C 46 % 94 % 1023,3 hPa 0,0 l/m² 0,0 km/h (0 Bft) S-SW 202 ° -0,9 °C -0,1 °C
02.12.2017 07:53 23,1 °C -0,1 °C 46 % 94 % 1023,5 hPa 0,0 l/m² 0,0 km/h (0 Bft) S-SW 202 ° -0,9 °C -0,1 °C
02.12.2017 07:55 23,2 °C -0,1 °C 46 % 94 % 1023,4 hPa 0,0 l/m² 0,0 km/h (0 Bft) S-SW 202 ° -0,9 °C -0,1 °C
02.12.2017 07:57 23,2 °C -0,1 °C 46 % 94 % 1023,5 hPa 0,0 l/m² 0,0 km/h (0 Bft) S-SW 202 ° -0,9 °C -0,1 °C
02.12.2017 07:59 23,1 °C -0,1 °C 46 % 94 % 1023,5 hPa 0,0 l/m² 0,0 km/h (0 Bft) S-SW 202 ° -0,9 °C -0,1 °C
02.12.2017 08:01 23,2 °C -0,1 °C 46 % 94 % 1023,5 hPa 0,0 l/m² 0,0 km/h (0 Bft) S-SW 202 ° -0,9 °C -0,1 °C
02.12.2017 08:03 23,2 °C -0,1 °C 46 % 94 % 1023,5 hPa 0,0 l/m² 0,0 km/h (0 Bft) S-SW 202 ° -0,9 °C -0,1 °C
02.12.2017 08:05 23,1 °C -0,1 °C 46 % 94 % 1023,5 hPa 0,0 l/m² 0,0 km/h (0 Bft) S-SW 202 ° -0,9 °C -0,1 °C
02.12.2017 08:07 23,2 °C -0,1 °C 46 % 94 % 1023,5 hPa 0,0 l/m² 0,0 km/h (0 Bft) S-SW 202 ° -0,9 °C -0,1 °C
02.12.2017 08:09 23,2 °C 0,1 °C 46 % 94 % 1023,5 hPa 0,0 l/m² 0,0 km/h (0 Bft) S-SW 202 ° -0,7 °C 0,1 °C
02.12.2017 08:11 23,2 °C -0,1 °C 46 % 94 % 1023,6 hPa 0,0 l/m² 0,0 km/h (0 Bft) S-SW 202 ° -0,9 °C -0,1 °C
02.12.2017 08:13 23,2 °C 0,0 °C 46 % 94 % 1023,6 hPa 0,0 l/m² 0,0 km/h (0 Bft) S-SW 202 ° -0,8 °C 0,0 °C
02.12.2017 08:15 23,2 °C 0,0 °C 46 % 94 % 1023,6 hPa 0,0 l/m² 0,0 km/h (0 Bft) S-SW 202 ° -0,8 °C 0,0 °C
02.12.2017 08:17 23,2 °C -0,1 °C 46 % 94 % 1023,5 hPa 0,0 l/m² 0,0 km/h (0 Bft) S-SW 202 ° -0,9 °C -0,1 °C
02.12.2017 08:19 23,2 °C 0,0 °C 46 % 94 % 1023,7 hPa 0,0 l/m² 0,0 km/h (0 Bft) S-SW 202 ° -0,8 °C 0,0 °C
02.12.2017 08:21 23,2 °C -0,1 °C 46 % 94 % 1023,7 hPa 0,0 l/m² 0,0 km/h (0 Bft) S-SW 202 ° -0,9 °C -0,1 °C
02.12.2017 08:23 23,1 °C -0,1 °C 46 % 94 % 1023,7 hPa 0,0 l/m² 0,0 km/h (0 Bft) S-SW 202 ° -0,9 °C -0,1 °C
02.12.2017 08:25 23,2 °C 0,0 °C 46 % 94 % 1023,7 hPa 0,0 l/m² 0,0 km/h (0 Bft) S-SW 202 ° -0,8 °C 0,0 °C
02.12.2017 08:27 23,2 °C 0,0 °C 46 % 94 % 1023,8 hPa 0,0 l/m² 0,0 km/h (0 Bft) S-SW 202 ° -0,8 °C 0,0 °C
02.12.2017 08:29 23,2 °C 0,1 °C 46 % 94 % 1023,8 hPa 0,0 l/m² 0,0 km/h (0 Bft) S-SW 202 ° -0,7 °C 0,1 °C
02.12.2017 08:31 23,2 °C -0,1 °C 46 % 94 % 1023,8 hPa 0,0 l/m² 0,0 km/h (0 Bft) S-SW 202 ° -0,9 °C -0,1 °C
02.12.2017 08:33 23,2 °C -0,1 °C 46 % 94 % 1023,8 hPa 0,0 l/m² 0,0 km/h (0 Bft) S-SW 202 ° -0,9 °C -0,1 °C
02.12.2017 08:35 23,2 °C -0,1 °C 46 % 94 % 1023,8 hPa 0,0 l/m² 0,0 km/h (0 Bft) S-SW 202 ° -0,9 °C -0,1 °C
02.12.2017 08:37 23,2 °C -0,1 °C 46 % 94 % 1023,8 hPa 0,0 l/m² 0,0 km/h (0 Bft) S-SW 202 ° -0,9 °C -0,1 °C
02.12.2017 08:39 23,1 °C 0,0 °C 46 % 94 % 1023,8 hPa 0,0 l/m² 0,0 km/h (0 Bft) S-SW 202 ° -0,8 °C 0,0 °C
02.12.2017 08:41 23,1 °C -0,1 °C 46 % 94 % 1023,8 hPa 0,0 l/m² 0,0 km/h (0 Bft) S-SW 202 ° -0,9 °C -0,1 °C
02.12.2017 08:43 23,1 °C -0,1 °C 46 % 94 % 1023,8 hPa 0,0 l/m² 0,0 km/h (0 Bft) S-SW 202 ° -0,9 °C -0,1 °C
02.12.2017 08:45 23,2 °C -0,1 °C 46 % 94 % 1023,9 hPa 0,0 l/m² 0,0 km/h (0 Bft) S-SW 202 ° -0,9 °C -0,1 °C
02.12.2017 08:47 23,2 °C -0,1 °C 46 % 94 % 1023,8 hPa 0,0 l/m² 0,0 km/h (0 Bft) S-SW 202 ° -0,9 °C -0,1 °C
02.12.2017 08:49 23,2 °C -0,1 °C 46 % 94 % 1023,8 hPa 0,0 l/m² 0,0 km/h (0 Bft) S-SW 202 ° -0,9 °C -0,1 °C
02.12.2017 08:51 23,2 °C -0,1 °C 46 % 94 % 1023,8 hPa 0,0 l/m² 0,0 km/h (0 Bft) S-SW 202 ° -0,9 °C -0,1 °C
02.12.2017 08:53 23,2 °C -0,1 °C 46 % 94 % 1023,8 hPa 0,0 l/m² 0,0 km/h (0 Bft) S-SW 202 ° -0,9 °C -0,1 °C
02.12.2017 08:55 23,2 °C -0,1 °C 47 % 94 % 1023,9 hPa 0,0 l/m² 0,0 km/h (0 Bft) S-SW 202 ° -0,9 °C -0,1 °C
02.12.2017 08:57 23,2 °C -0,1 °C 47 % 94 % 1023,9 hPa 0,0 l/m² 0,0 km/h (0 Bft) S-SW 202 ° -0,9 °C -0,1 °C
02.12.2017 08:59 23,2 °C 0,1 °C 46 % 94 % 1024,0 hPa 0,0 l/m² 0,0 km/h (0 Bft) S-SW 202 ° -0,7 °C 0,1 °C
02.12.2017 09:01 23,2 °C 0,0 °C 46 % 94 % 1024,0 hPa 0,0 l/m² 0,0 km/h (0 Bft) S-SW 202 ° -0,8 °C 0,0 °C
02.12.2017 09:03 23,2 °C 0,1 °C 46 % 94 % 1023,9 hPa 0,0 l/m² 0,0 km/h (0 Bft) S-SW 202 ° -0,7 °C 0,1 °C
02.12.2017 09:05 23,2 °C 0,0 °C 46 % 94 % 1023,9 hPa 0,0 l/m² 0,0 km/h (0 Bft) S-SW 202 ° -0,8 °C 0,0 °C
02.12.2017 09:07 23,2 °C 0,0 °C 46 % 94 % 1023,8 hPa 0,0 l/m² 0,0 km/h (0 Bft) S-SW 202 ° -0,8 °C 0,0 °C
02.12.2017 09:09 23,2 °C -0,1 °C 46 % 94 % 1023,8 hPa 0,0 l/m² 0,0 km/h (0 Bft) S-SW 202 ° -0,9 °C -0,1 °C
02.12.2017 09:11 23,2 °C 0,1 °C 46 % 94 % 1023,9 hPa 0,0 l/m² 0,0 km/h (0 Bft) S-SW 202 ° -0,7 °C 0,1 °C
02.12.2017 09:13 23,2 °C 0,1 °C 46 % 94 % 1023,9 hPa 0,0 l/m² 0,0 km/h (0 Bft) S-SW 202 ° -0,7 °C 0,1 °C
02.12.2017 09:15 23,2 °C 0,1 °C 46 % 94 % 1024,0 hPa 0,0 l/m² 1,8 km/h (1 Bft) S-SW 202 ° -0,7 °C 0,1 °C
02.12.2017 09:17 23,3 °C 0,0 °C 47 % 94 % 1024,0 hPa 0,0 l/m² 0,0 km/h (0 Bft) S-SW 202 ° -0,8 °C 0,0 °C
02.12.2017 09:19 23,3 °C 0,0 °C 47 % 94 % 1024,0 hPa 0,0 l/m² 0,0 km/h (0 Bft) S-SW 202 ° -0,8 °C 0,0 °C
02.12.2017 09:21 23,3 °C 0,1 °C 47 % 94 % 1024,0 hPa 0,0 l/m² 0,0 km/h (0 Bft) S-SW 202 ° -0,7 °C 0,1 °C
02.12.2017 09:23 23,3 °C 0,1 °C 47 % 94 % 1024,0 hPa 0,0 l/m² 0,0 km/h (0 Bft) S-SW 202 ° -0,7 °C 0,1 °C
02.12.2017 09:25 23,3 °C 0,1 °C 47 % 94 % 1024,1 hPa 0,0 l/m² 0,0 km/h (0 Bft) S-SW 202 ° -0,7 °C 0,1 °C
02.12.2017 09:27 23,3 °C 0,0 °C 47 % 94 % 1024,1 hPa 0,0 l/m² 2,2 km/h (1 Bft) S-SW 202 ° -0,8 °C 0,0 °C
02.12.2017 09:29 23,3 °C 0,0 °C 47 % 94 % 1024,1 hPa 0,0 l/m² 2,2 km/h (1 Bft) S-SW 202 ° -0,8 °C 0,0 °C
02.12.2017 09:31 23,4 °C 0,0 °C 47 % 94 % 1024,0 hPa 0,0 l/m² 2,9 km/h (1 Bft) S-SW 202 ° -0,8 °C 0,0 °C
02.12.2017 09:33 23,3 °C -0,1 °C 47 % 94 % 1024,1 hPa 0,0 l/m² 4,0 km/h (1 Bft) S-SW 202 ° -0,9 °C -0,1 °C
02.12.2017 09:35 23,4 °C 0,1 °C 47 % 94 % 1024,1 hPa 0,0 l/m² 4,0 km/h (1 Bft) S-SW 202 ° -0,7 °C 0,1 °C
02.12.2017 09:37 23,4 °C 0,1 °C 47 % 94 % 1024,2 hPa 0,0 l/m² 5,0 km/h (1 Bft) S-SW 202 ° -0,7 °C 0,1 °C
02.12.2017 09:39 23,4 °C 0,1 °C 47 % 94 % 1024,2 hPa 0,0 l/m² 3,6 km/h (1 Bft) S-SW 202 ° -0,7 °C 0,1 °C
02.12.2017 09:41 23,4 °C 0,1 °C 47 % 94 % 1024,1 hPa 0,0 l/m² 3,6 km/h (1 Bft) S-SW 202 ° -0,7 °C 0,1 °C
02.12.2017 09:43 23,4 °C 0,1 °C 47 % 94 % 1024,2 hPa 0,0 l/m² 2,5 km/h (1 Bft) S-SW 202 ° -0,7 °C 0,1 °C
02.12.2017 09:45 23,4 °C 0,0 °C 47 % 94 % 1024,3 hPa 0,0 l/m² 3,2 km/h (1 Bft) S-SW 202 ° -0,8 °C 0,0 °C
02.12.2017 09:47 23,4 °C 0,1 °C 47 % 94 % 1024,2 hPa 0,0 l/m² 0,0 km/h (0 Bft) S-SW 202 ° -0,7 °C 0,1 °C
02.12.2017 09:49 23,4 °C 0,1 °C 47 % 94 % 1024,2 hPa 0,0 l/m² 0,0 km/h (0 Bft) S-SW 202 ° -0,7 °C 0,1 °C
02.12.2017 09:51 23,4 °C 0,1 °C 47 % 94 % 1024,3 hPa 0,0 l/m² 0,0 km/h (0 Bft) S-SW 202 ° -0,7 °C 0,1 °C
02.12.2017 09:53 23,4 °C 0,1 °C 47 % 94 % 1024,3 hPa 0,0 l/m² 0,0 km/h (0 Bft) S-SW 202 ° -0,7 °C 0,1 °C
02.12.2017 09:55 23,4 °C 0,1 °C 47 % 94 % 1024,3 hPa 0,0 l/m² 0,0 km/h (0 Bft) S-SW 202 ° -0,7 °C 0,1 °C
02.12.2017 09:57 23,4 °C 0,1 °C 47 % 94 % 1024,3 hPa 0,0 l/m² 0,0 km/h (0 Bft) S-SW 202 ° -0,7 °C 0,1 °C
02.12.2017 09:59 23,4 °C 0,1 °C 47 % 94 % 1024,2 hPa 0,0 l/m² 0,0 km/h (0 Bft) S-SW 202 ° -0,7 °C 0,1 °C
02.12.2017 10:01 23,4 °C 0,1 °C 47 % 94 % 1024,3 hPa 0,0 l/m² 0,0 km/h (0 Bft) S-SW 202 ° -0,7 °C 0,1 °C
02.12.2017 10:03 23,4 °C 0,1 °C 46 % 94 % 1024,3 hPa 0,0 l/m² 0,0 km/h (0 Bft) S-SW 202 ° -0,7 °C 0,1 °C
02.12.2017 10:05 23,4 °C 0,1 °C 46 % 94 % 1024,3 hPa 0,0 l/m² 0,0 km/h (0 Bft) S-SW 202 ° -0,7 °C 0,1 °C
02.12.2017 10:07 23,4 °C 0,1 °C 46 % 94 % 1024,4 hPa 0,0 l/m² 0,0 km/h (0 Bft) S-SW 202 ° -0,7 °C 0,1 °C
02.12.2017 10:09 23,4 °C 0,1 °C 46 % 94 % 1024,4 hPa 0,0 l/m² 0,0 km/h (0 Bft) S-SW 202 ° -0,7 °C 0,1 °C
02.12.2017 10:11 23,4 °C 0,1 °C 46 % 94 % 1024,4 hPa 0,0 l/m² 0,0 km/h (0 Bft) S-SW 202 ° -0,7 °C 0,1 °C
02.12.2017 10:13 23,4 °C 0,2 °C 46 % 94 % 1024,5 hPa 0,0 l/m² 0,0 km/h (0 Bft) S-SW 202 ° -0,6 °C 0,2 °C
02.12.2017 10:15 23,4 °C 0,1 °C 46 % 94 % 1024,5 hPa 0,0 l/m² 0,0 km/h (0 Bft) S-SW 202 ° -0,7 °C 0,1 °C
02.12.2017 10:17 23,4 °C 0,2 °C 46 % 94 % 1024,5 hPa 0,0 l/m² 0,0 km/h (0 Bft) S-SW 202 ° -0,6 °C 0,2 °C
02.12.2017 10:19 23,4 °C 0,2 °C 46 % 94 % 1024,5 hPa 0,0 l/m² 0,0 km/h (0 Bft) S-SW 202 ° -0,6 °C 0,2 °C
02.12.2017 10:21 23,4 °C 0,3 °C 46 % 94 % 1024,5 hPa 0,0 l/m² 0,0 km/h (0 Bft) S-SW 202 ° -0,5 °C 0,3 °C
02.12.2017 10:23 23,4 °C 0,3 °C 46 % 94 % 1024,6 hPa 0,0 l/m² 0,0 km/h (0 Bft) S-SW 202 ° -0,5 °C 0,3 °C
02.12.2017 10:25 23,4 °C 0,3 °C 46 % 94 % 1024,5 hPa 0,0 l/m² 0,0 km/h (0 Bft) S-SW 202 ° -0,5 °C 0,3 °C
02.12.2017 10:27 23,4 °C 0,3 °C 46 % 94 % 1024,5 hPa 0,0 l/m² 0,0 km/h (0 Bft) S-SW 202 ° -0,5 °C 0,3 °C
02.12.2017 10:29 23,4 °C 0,3 °C 47 % 94 % 1024,5 hPa 0,0 l/m² 0,0 km/h (0 Bft) S-SW 202 ° -0,5 °C 0,3 °C
02.12.2017 10:31 23,4 °C 0,3 °C 47 % 94 % 1024,5 hPa 0,0 l/m² 0,0 km/h (0 Bft) S-SW 202 ° -0,5 °C 0,3 °C
02.12.2017 10:33 23,4 °C 0,3 °C 47 % 94 % 1024,5 hPa 0,0 l/m² 0,0 km/h (0 Bft) S-SW 202 ° -0,5 °C 0,3 °C
02.12.2017 10:35 23,4 °C 0,4 °C 47 % 94 % 1024,4 hPa 0,0 l/m² 0,0 km/h (0 Bft) S-SW 202 ° -0,5 °C 0,4 °C
02.12.2017 10:37 23,4 °C 0,4 °C 47 % 94 % 1024,6 hPa 0,0 l/m² 0,0 km/h (0 Bft) S-SW 202 ° -0,5 °C 0,4 °C
02.12.2017 10:39 23,4 °C 0,4 °C 47 % 94 % 1024,7 hPa 0,0 l/m² 0,0 km/h (0 Bft) S-SW 202 ° -0,5 °C 0,4 °C
02.12.2017 10:41 23,5 °C 0,4 °C 47 % 94 % 1024,7 hPa 0,0 l/m² 0,0 km/h (0 Bft) S-SW 202 ° -0,5 °C 0,4 °C
02.12.2017 10:43 23,5 °C 0,3 °C 47 % 94 % 1024,6 hPa 0,0 l/m² 0,0 km/h (0 Bft) S-SW 202 ° -0,5 °C 0,3 °C
02.12.2017 10:45 23,5 °C 0,4 °C 47 % 94 % 1024,6 hPa 0,0 l/m² 0,0 km/h (0 Bft) S-SW 202 ° -0,5 °C 0,4 °C
02.12.2017 10:47 23,5 °C 0,4 °C 47 % 94 % 1024,6 hPa 0,0 l/m² 0,0 km/h (0 Bft) S-SW 202 ° -0,5 °C 0,4 °C
02.12.2017 10:49 23,5 °C 0,4 °C 47 % 94 % 1024,6 hPa 0,0 l/m² 0,0 km/h (0 Bft) S-SW 202 ° -0,5 °C 0,4 °C
02.12.2017 10:51 23,5 °C 0,4 °C 48 % 94 % 1024,7 hPa 0,0 l/m² 0,0 km/h (0 Bft) S-SW 202 ° -0,5 °C 0,4 °C
02.12.2017 10:53 23,5 °C 0,4 °C 48 % 94 % 1024,7 hPa 0,0 l/m² 0,0 km/h (0 Bft) S-SW 202 ° -0,5 °C 0,4 °C
02.12.2017 10:55 23,5 °C 0,4 °C 48 % 94 % 1024,8 hPa 0,0 l/m² 0,0 km/h (0 Bft) S-SW 202 ° -0,5 °C 0,4 °C
02.12.2017 10:57 23,6 °C 0,5 °C 48 % 94 % 1024,9 hPa 0,0 l/m² 0,0 km/h (0 Bft) S-SW 202 ° -0,4 °C 0,5 °C
02.12.2017 10:59 23,6 °C 0,5 °C 48 % 94 % 1024,8 hPa 0,0 l/m² 0,0 km/h (0 Bft) S-SW 202 ° -0,4 °C 0,5 °C
02.12.2017 11:01 23,6 °C 0,5 °C 48 % 94 % 1024,8 hPa 0,0 l/m² 0,0 km/h (0 Bft) S-SW 202 ° -0,4 °C 0,5 °C
02.12.2017 11:03 23,6 °C 0,5 °C 48 % 94 % 1024,7 hPa 0,0 l/m² 0,0 km/h (0 Bft) S-SW 202 ° -0,4 °C 0,5 °C
02.12.2017 11:05 23,6 °C 0,5 °C 48 % 94 % 1024,8 hPa 0,0 l/m² 0,0 km/h (0 Bft) S-SW 202 ° -0,4 °C 0,5 °C
02.12.2017 11:07 23,6 °C 0,5 °C 49 % 94 % 1024,8 hPa 0,0 l/m² 0,0 km/h (0 Bft) S-SW 202 ° -0,4 °C 0,5 °C
02.12.2017 11:09 23,6 °C 0,6 °C 49 % 94 % 1024,7 hPa 0,0 l/m² 0,0 km/h (0 Bft) S-SW 202 ° -0,3 °C 0,6 °C
02.12.2017 11:11 23,6 °C 0,6 °C 49 % 94 % 1024,5 hPa 0,0 l/m² 0,0 km/h (0 Bft) S-SW 202 ° -0,3 °C 0,6 °C
02.12.2017 11:13 23,6 °C 0,6 °C 49 % 94 % 1024,5 hPa 0,0 l/m² 0,0 km/h (0 Bft) S-SW 202 ° -0,3 °C 0,6 °C
02.12.2017 11:15 23,6 °C 0,6 °C 49 % 94 % 1024,6 hPa 0,0 l/m² 0,0 km/h (0 Bft) S-SW 202 ° -0,3 °C 0,6 °C
02.12.2017 11:17 23,7 °C 0,7 °C 49 % 94 % 1024,6 hPa 0,0 l/m² 0,0 km/h (0 Bft) S-SW 202 ° -0,2 °C 0,7 °C
02.12.2017 11:19 23,7 °C 0,7 °C 49 % 94 % 1024,6 hPa 0,0 l/m² 0,0 km/h (0 Bft) S-SW 202 ° -0,2 °C 0,7 °C
02.12.2017 11:21 23,7 °C 0,8 °C 49 % 95 % 1024,6 hPa 0,0 l/m² 0,0 km/h (0 Bft) S-SW 202 ° 0,1 °C 0,8 °C
02.12.2017 11:23 23,7 °C 0,8 °C 49 % 95 % 1024,5 hPa 0,0 l/m² 0,0 km/h (0 Bft) S-SW 202 ° 0,1 °C 0,8 °C
02.12.2017 11:25 23,8 °C 0,8 °C 49 % 95 % 1024,4 hPa 0,0 l/m² 0,0 km/h (0 Bft) S-SW 202 ° 0,1 °C 0,8 °C
02.12.2017 11:27 23,8 °C 0,9 °C 49 % 95 % 1024,4 hPa 0,0 l/m² 0,0 km/h (0 Bft) S-SW 202 ° 0,2 °C 0,9 °C
02.12.2017 11:29 23,8 °C 0,9 °C 49 % 95 % 1024,4 hPa 0,0 l/m² 0,0 km/h (0 Bft) S-SW 202 ° 0,2 °C 0,9 °C
02.12.2017 11:31 23,8 °C 1,0 °C 48 % 95 % 1024,4 hPa 0,0 l/m² 0,0 km/h (0 Bft) S-SW 202 ° 0,3 °C 1,0 °C
02.12.2017 11:33 23,8 °C 1,0 °C 48 % 95 % 1024,4 hPa 0,0 l/m² 0,0 km/h (0 Bft) S-SW 202 ° 0,3 °C 1,0 °C
02.12.2017 11:35 23,7 °C 1,0 °C 39 % 95 % 1024,4 hPa 0,0 l/m² 0,0 km/h (0 Bft) S-SW 202 ° 0,3 °C 1,0 °C
02.12.2017 11:37 23,6 °C 1,2 °C 35 % 94 % 1024,5 hPa 0,0 l/m² 0,0 km/h (0 Bft) S-SW 202 ° 0,3 °C 1,2 °C
02.12.2017 11:39 23,4 °C 1,2 °C 32 % 94 % 1024,6 hPa 0,0 l/m² 0,0 km/h (0 Bft) S-SW 202 ° 0,3 °C 1,2 °C
02.12.2017 11:41 23,3 °C 1,3 °C 36 % 95 % 1024,4 hPa 0,0 l/m² 2,5 km/h (1 Bft) S 180 ° 0,6 °C 1,3 °C
02.12.2017 11:43 23,2 °C 1,3 °C 39 % 95 % 1024,5 hPa 0,0 l/m² 0,0 km/h (0 Bft) S 180 ° 0,6 °C 1,3 °C
02.12.2017 11:45 23,1 °C 1,3 °C 40 % 95 % 1024,4 hPa 0,0 l/m² 0,0 km/h (0 Bft) S 180 ° 0,6 °C 1,3 °C
02.12.2017 11:47 23,0 °C 1,3 °C 40 % 95 % 1024,3 hPa 0,0 l/m² 0,0 km/h (0 Bft) S 180 ° 0,6 °C 1,3 °C
02.12.2017 11:49 23,0 °C 1,3 °C 40 % 95 % 1024,4 hPa 0,0 l/m² 0,0 km/h (0 Bft) S 180 ° 0,6 °C 1,3 °C
02.12.2017 11:51 23,0 °C 1,3 °C 40 % 95 % 1024,4 hPa 0,0 l/m² 0,0 km/h (0 Bft) S 180 ° 0,6 °C 1,3 °C
02.12.2017 11:53 23,0 °C 1,3 °C 40 % 95 % 1024,4 hPa 0,0 l/m² 0,0 km/h (0 Bft) S 180 ° 0,6 °C 1,3 °C
02.12.2017 11:55 23,0 °C 1,3 °C 40 % 95 % 1024,4 hPa 0,0 l/m² 0,0 km/h (0 Bft) S 180 ° 0,6 °C 1,3 °C
02.12.2017 11:57 23,0 °C 1,3 °C 42 % 95 % 1024,5 hPa 0,0 l/m² 0,0 km/h (0 Bft) S 180 ° 0,6 °C 1,3 °C
02.12.2017 11:59 23,0 °C 1,3 °C 42 % 95 % 1024,5 hPa 0,0 l/m² 0,0 km/h (0 Bft) S 180 ° 0,6 °C 1,3 °C
02.12.2017 12:01 23,0 °C 1,3 °C 42 % 95 % 1024,5 hPa 0,0 l/m² 0,0 km/h (0 Bft) S 180 ° 0,6 °C 1,3 °C
02.12.2017 12:03 23,0 °C 1,3 °C 43 % 95 % 1024,5 hPa 0,0 l/m² 0,0 km/h (0 Bft) S 180 ° 0,6 °C 1,3 °C
02.12.2017 12:05 23,0 °C 1,3 °C 43 % 95 % 1024,6 hPa 0,0 l/m² 0,0 km/h (0 Bft) S 180 ° 0,6 °C 1,3 °C
02.12.2017 12:07 23,1 °C 1,3 °C 43 % 95 % 1024,6 hPa 0,0 l/m² 0,0 km/h (0 Bft) S 180 ° 0,6 °C 1,3 °C
02.12.2017 12:09 23,1 °C 1,3 °C 43 % 95 % 1024,5 hPa 0,0 l/m² 0,0 km/h (0 Bft) S 180 ° 0,6 °C 1,3 °C
02.12.2017 12:11 23,1 °C 1,3 °C 43 % 95 % 1024,5 hPa 0,0 l/m² 0,0 km/h (0 Bft) S 180 ° 0,6 °C 1,3 °C
02.12.2017 12:13 23,1 °C 1,9 °C 44 % 94 % 1024,6 hPa 0,0 l/m² 0,0 km/h (0 Bft) SW 225 ° 1,0 °C 1,9 °C
02.12.2017 12:15 23,2 °C 1,9 °C 44 % 94 % 1024,5 hPa 0,0 l/m² 2,9 km/h (1 Bft) SW 225 ° 1,0 °C 1,9 °C
02.12.2017 12:17 23,2 °C 2,0 °C 44 % 94 % 1024,5 hPa 0,0 l/m² 0,0 km/h (0 Bft) SW 225 ° 1,1 °C 2,0 °C
02.12.2017 12:19 23,2 °C 2,1 °C 44 % 94 % 1024,5 hPa 0,0 l/m² 0,0 km/h (0 Bft) SW 225 ° 1,2 °C 2,1 °C
02.12.2017 12:21 23,2 °C 2,1 °C 44 % 94 % 1024,5 hPa 0,0 l/m² 2,2 km/h (1 Bft) SW 225 ° 1,2 °C 2,1 °C
02.12.2017 12:23 23,2 °C 2,1 °C 44 % 94 % 1024,5 hPa 0,0 l/m² 3,6 km/h (1 Bft) SW 225 ° 1,2 °C 2,1 °C
02.12.2017 12:25 23,2 °C 2,1 °C 45 % 94 % 1024,6 hPa 0,0 l/m² 3,6 km/h (1 Bft) SW 225 ° 1,2 °C 2,1 °C
02.12.2017 12:27 23,2 °C 2,1 °C 45 % 94 % 1024,5 hPa 0,0 l/m² 2,5 km/h (1 Bft) SW 225 ° 1,2 °C 2,1 °C
02.12.2017 12:29 23,3 °C 2,1 °C 45 % 94 % 1024,5 hPa 0,0 l/m² 0,0 km/h (0 Bft) W-SW 247 ° 1,2 °C 2,1 °C
02.12.2017 12:31 23,3 °C 2,1 °C 45 % 94 % 1024,5 hPa 0,0 l/m² 0,0 km/h (0 Bft) W-NW 292 ° 1,2 °C 2,1 °C
02.12.2017 12:33 23,3 °C 2,1 °C 45 % 94 % 1024,5 hPa 0,0 l/m² 3,2 km/h (1 Bft) W-NW 292 ° 1,2 °C 2,1 °C
02.12.2017 12:35 23,3 °C 2,2 °C 45 % 94 % 1024,5 hPa 0,0 l/m² 3,6 km/h (1 Bft) NW 315 ° 1,3 °C 2,2 °C
02.12.2017 12:37 23,3 °C 2,1 °C 45 % 94 % 1024,5 hPa 0,0 l/m² 2,9 km/h (1 Bft) NW 315 ° 1,2 °C 2,1 °C
02.12.2017 12:39 23,4 °C 2,2 °C 44 % 94 % 1024,5 hPa 0,0 l/m² 2,2 km/h (1 Bft) NW 315 ° 1,3 °C 2,2 °C
02.12.2017 12:41 23,3 °C 2,2 °C 45 % 94 % 1024,5 hPa 0,0 l/m² 0,0 km/h (0 Bft) NW 315 ° 1,3 °C 2,2 °C
02.12.2017 12:43 23,4 °C 2,2 °C 45 % 94 % 1024,4 hPa 0,0 l/m² 1,4 km/h (1 Bft) NW 315 ° 1,3 °C 2,2 °C
02.12.2017 12:45 23,4 °C 2,2 °C 46 % 94 % 1024,5 hPa 0,0 l/m² 2,2 km/h (1 Bft) NW 315 ° 1,3 °C 2,2 °C
02.12.2017 12:47 23,4 °C 2,3 °C 46 % 94 % 1024,5 hPa 0,0 l/m² 0,0 km/h (0 Bft) NW 315 ° 1,4 °C 2,3 °C
02.12.2017 12:49 23,4 °C 2,3 °C 46 % 94 % 1024,4 hPa 0,0 l/m² 0,0 km/h (0 Bft) NW 315 ° 1,4 °C 2,3 °C
02.12.2017 12:51 23,4 °C 2,3 °C 46 % 94 % 1024,3 hPa 0,0 l/m² 0,0 km/h (0 Bft) NW 315 ° 1,4 °C 2,3 °C
02.12.2017 12:53 23,4 °C 2,3 °C 46 % 94 % 1024,4 hPa 0,0 l/m² 1,1 km/h (1 Bft) NW 315 ° 1,4 °C 2,3 °C
02.12.2017 12:55 23,4 °C 2,3 °C 46 % 94 % 1024,4 hPa 0,0 l/m² 1,1 km/h (1 Bft) NW 315 ° 1,4 °C 2,3 °C
02.12.2017 12:57 23,4 °C 2,3 °C 46 % 94 % 1024,5 hPa 0,0 l/m² 3,2 km/h (1 Bft) NW 315 ° 1,4 °C 2,3 °C
02.12.2017 12:59 23,4 °C 2,4 °C 46 % 94 % 1024,4 hPa 0,0 l/m² 2,9 km/h (1 Bft) NW 315 ° 1,5 °C 2,4 °C
02.12.2017 13:01 23,4 °C 2,4 °C 46 % 94 % 1024,3 hPa 0,0 l/m² 0,0 km/h (0 Bft) N 360 ° 1,5 °C 2,4 °C
02.12.2017 13:03 23,4 °C 2,4 °C 46 % 94 % 1024,4 hPa 0,0 l/m² 4,7 km/h (1 Bft) N-NW 337 ° 1,5 °C 2,4 °C
02.12.2017 13:05 23,4 °C 2,4 °C 45 % 94 % 1024,4 hPa 0,0 l/m² 4,7 km/h (1 Bft) N-NW 337 ° 1,5 °C 2,4 °C
02.12.2017 13:07 23,5 °C 2,4 °C 45 % 94 % 1024,3 hPa 0,0 l/m² 0,0 km/h (0 Bft) N-NW 337 ° 1,5 °C 2,4 °C
02.12.2017 13:09 23,5 °C 2,4 °C 45 % 94 % 1024,4 hPa 0,0 l/m² 0,0 km/h (0 Bft) N-NW 337 ° 1,5 °C 2,4 °C
02.12.2017 13:11 23,5 °C 2,4 °C 45 % 94 % 1024,4 hPa 0,0 l/m² 0,0 km/h (0 Bft) N-NW 337 ° 1,5 °C 2,4 °C
02.12.2017 13:13 23,5 °C 2,4 °C 45 % 94 % 1024,4 hPa 0,0 l/m² 5,8 km/h (2 Bft) N-NW 337 ° 1,5 °C 2,4 °C
02.12.2017 13:15 23,5 °C 2,4 °C 45 % 94 % 1024,4 hPa 0,0 l/m² 4,0 km/h (1 Bft) N-NW 337 ° 1,5 °C 2,4 °C
02.12.2017 13:17 23,5 °C 2,5 °C 45 % 94 % 1024,3 hPa 0,0 l/m² 6,5 km/h (2 Bft) N-NW 337 ° 1,6 °C 2,4 °C
02.12.2017 13:19 23,5 °C 2,4 °C 45 % 94 % 1024,3 hPa 0,0 l/m² 4,0 km/h (1 Bft) N 360 ° 1,5 °C 2,4 °C
02.12.2017 13:21 23,5 °C 2,4 °C 45 % 94 % 1024,4 hPa 0,0 l/m² 3,6 km/h (1 Bft) N-NW 337 ° 1,5 °C 2,4 °C
02.12.2017 13:23 23,5 °C 2,5 °C 45 % 94 % 1024,4 hPa 0,0 l/m² 4,7 km/h (1 Bft) NW 315 ° 1,6 °C 2,5 °C
02.12.2017 13:25 23,4 °C 2,5 °C 44 % 94 % 1024,3 hPa 0,0 l/m² 4,7 km/h (1 Bft) NW 315 ° 1,6 °C 2,5 °C
02.12.2017 13:27 23,4 °C 2,4 °C 45 % 94 % 1024,3 hPa 0,0 l/m² 0,0 km/h (0 Bft) NW 315 ° 1,5 °C 2,4 °C
02.12.2017 13:29 23,4 °C 2,4 °C 45 % 94 % 1024,4 hPa 0,0 l/m² 0,0 km/h (0 Bft) NW 315 ° 1,5 °C 2,4 °C
02.12.2017 13:31 23,4 °C 2,5 °C 45 % 94 % 1024,4 hPa 0,0 l/m² 0,0 km/h (0 Bft) NW 315 ° 1,6 °C 2,5 °C
02.12.2017 13:33 23,4 °C 2,5 °C 45 % 94 % 1024,4 hPa 0,0 l/m² 0,0 km/h (0 Bft) NW 315 ° 1,6 °C 2,5 °C
02.12.2017 13:35 23,4 °C 2,5 °C 45 % 93 % 1024,4 hPa 0,0 l/m² 0,0 km/h (0 Bft) W-NW 292 ° 1,5 °C 2,5 °C
02.12.2017 13:37 23,4 °C 2,5 °C 45 % 93 % 1024,4 hPa 0,0 l/m² 2,5 km/h (1 Bft) W-NW 292 ° 1,5 °C 2,5 °C
02.12.2017 13:39 23,4 °C 2,6 °C 45 % 93 % 1024,4 hPa 0,0 l/m² 0,0 km/h (0 Bft) W-NW 292 ° 1,6 °C 2,6 °C
02.12.2017 13:41 23,4 °C 2,6 °C 45 % 93 % 1024,4 hPa 0,0 l/m² 2,5 km/h (1 Bft) W-NW 292 ° 1,6 °C 2,6 °C
02.12.2017 13:43 23,4 °C 2,6 °C 45 % 93 % 1024,4 hPa 0,0 l/m² 0,0 km/h (0 Bft) NW 315 ° 1,6 °C 2,6 °C
02.12.2017 13:45 23,4 °C 2,6 °C 45 % 93 % 1024,4 hPa 0,0 l/m² 4,3 km/h (1 Bft) W-NW 292 ° 1,6 °C 2,6 °C
02.12.2017 13:47 23,4 °C 2,6 °C 45 % 93 % 1024,4 hPa 0,0 l/m² 3,2 km/h (1 Bft) W-NW 292 ° 1,6 °C 2,6 °C
02.12.2017 13:49 23,4 °C 2,6 °C 45 % 93 % 1024,4 hPa 0,0 l/m² 4,3 km/h (1 Bft) W 270 ° 1,6 °C 2,6 °C
02.12.2017 13:51 23,4 °C 2,7 °C 45 % 93 % 1024,3 hPa 0,0 l/m² 5,8 km/h (2 Bft) W 270 ° 1,7 °C 2,7 °C
02.12.2017 13:53 23,4 °C 2,6 °C 45 % 93 % 1024,4 hPa 0,0 l/m² 5,8 km/h (2 Bft) W-NW 292 ° 1,6 °C 2,6 °C
02.12.2017 13:55 23,5 °C 2,6 °C 45 % 93 % 1024,4 hPa 0,0 l/m² 5,8 km/h (2 Bft) W-NW 292 ° 1,6 °C 2,6 °C
02.12.2017 13:57 23,5 °C 2,7 °C 45 % 93 % 1024,4 hPa 0,0 l/m² 5,8 km/h (2 Bft) W 270 ° 1,7 °C 2,7 °C
02.12.2017 13:59 23,5 °C 2,7 °C 45 % 93 % 1024,3 hPa 0,0 l/m² 0,0 km/h (0 Bft) W 270 ° 1,7 °C 2,7 °C
02.12.2017 14:01 23,5 °C 2,8 °C 45 % 93 % 1024,3 hPa 0,0 l/m² 4,7 km/h (1 Bft) W-NW 292 ° 1,8 °C 2,8 °C
02.12.2017 14:03 23,5 °C 2,8 °C 45 % 93 % 1024,4 hPa 0,0 l/m² 0,0 km/h (0 Bft) W-NW 292 ° 1,8 °C 2,8 °C
02.12.2017 14:05 23,5 °C 2,8 °C 45 % 93 % 1024,3 hPa 0,0 l/m² 2,5 km/h (1 Bft) W-NW 292 ° 1,8 °C 2,8 °C
02.12.2017 14:07 23,5 °C 2,8 °C 45 % 93 % 1024,3 hPa 0,0 l/m² 0,0 km/h (0 Bft) W-NW 292 ° 1,8 °C 2,8 °C
02.12.2017 14:09 23,5 °C 2,9 °C 45 % 93 % 1024,2 hPa 0,0 l/m² 4,0 km/h (1 Bft) W-NW 292 ° 1,9 °C 2,9 °C
02.12.2017 14:11 23,5 °C 2,9 °C 45 % 93 % 1024,2 hPa 0,0 l/m² 1,8 km/h (1 Bft) W-NW 292 ° 1,9 °C 2,9 °C
02.12.2017 14:13 23,5 °C 2,9 °C 45 % 93 % 1024,1 hPa 0,0 l/m² 4,0 km/h (1 Bft) W 270 ° 1,9 °C 2,9 °C
02.12.2017 14:15 23,5 °C 2,9 °C 45 % 93 % 1024,1 hPa 0,0 l/m² 2,9 km/h (1 Bft) W-NW 292 ° 1,9 °C 2,9 °C
02.12.2017 14:17 23,5 °C 2,9 °C 45 % 93 % 1024,2 hPa 0,0 l/m² 6,1 km/h (2 Bft) W-NW 292 ° 1,9 °C 2,9 °C
02.12.2017 14:19 23,5 °C 2,9 °C 45 % 92 % 1024,1 hPa 0,0 l/m² 6,1 km/h (2 Bft) W-NW 292 ° 1,7 °C 2,9 °C
02.12.2017 14:21 23,5 °C 2,9 °C 45 % 92 % 1024,0 hPa 0,0 l/m² 6,5 km/h (2 Bft) W 270 ° 1,7 °C 2,8 °C
02.12.2017 14:23 23,5 °C 2,9 °C 45 % 92 % 1024,1 hPa 0,0 l/m² 3,2 km/h (1 Bft) W-NW 292 ° 1,7 °C 2,9 °C
02.12.2017 14:25 23,5 °C 2,9 °C 45 % 92 % 1024,1 hPa 0,0 l/m² 3,2 km/h (1 Bft) W-NW 292 ° 1,7 °C 2,9 °C
02.12.2017 14:27 23,6 °C 2,9 °C 45 % 92 % 1024,0 hPa 0,0 l/m² 4,3 km/h (1 Bft) W-NW 292 ° 1,7 °C 2,9 °C
02.12.2017 14:29 23,5 °C 2,9 °C 45 % 92 % 1024,1 hPa 0,0 l/m² 4,7 km/h (1 Bft) W-NW 292 ° 1,7 °C 2,9 °C
02.12.2017 14:31 23,5 °C 2,9 °C 45 % 92 % 1024,1 hPa 0,0 l/m² 2,9 km/h (1 Bft) W-NW 292 ° 1,7 °C 2,9 °C
02.12.2017 14:33 23,5 °C 2,9 °C 45 % 92 % 1024,1 hPa 0,0 l/m² 0,0 km/h (0 Bft) W-NW 292 ° 1,7 °C 2,9 °C
02.12.2017 14:35 23,5 °C 2,9 °C 45 % 92 % 1024,1 hPa 0,0 l/m² 0,0 km/h (0 Bft) W-NW 292 ° 1,7 °C 2,9 °C
02.12.2017 14:37 23,5 °C 2,9 °C 45 % 92 % 1024,1 hPa 0,0 l/m² 0,0 km/h (0 Bft) W-NW 292 ° 1,7 °C 2,9 °C
02.12.2017 14:39 23,5 °C 2,9 °C 45 % 92 % 1024,2 hPa 0,0 l/m² 0,0 km/h (0 Bft) W-NW 292 ° 1,7 °C 2,9 °C
02.12.2017 14:41 23,5 °C 2,9 °C 45 % 92 % 1024,1 hPa 0,0 l/m² 0,0 km/h (0 Bft) W-NW 292 ° 1,7 °C 2,9 °C
02.12.2017 14:43 23,5 °C 2,9 °C 45 % 92 % 1023,9 hPa 0,0 l/m² 0,0 km/h (0 Bft) W-NW 292 ° 1,7 °C 2,9 °C
02.12.2017 14:45 23,5 °C 2,8 °C 45 % 92 % 1024,0 hPa 0,0 l/m² 0,0 km/h (0 Bft) W-NW 292 ° 1,6 °C 2,8 °C
02.12.2017 14:47 23,5 °C 2,8 °C 45 % 92 % 1023,9 hPa 0,0 l/m² 0,0 km/h (0 Bft) W-NW 292 ° 1,6 °C 2,8 °C
02.12.2017 14:49 23,4 °C 2,8 °C 45 % 92 % 1024,0 hPa 0,0 l/m² 0,0 km/h (0 Bft) W-NW 292 ° 1,6 °C 2,8 °C
02.12.2017 14:51 23,4 °C 2,8 °C 45 % 91 % 1024,0 hPa 0,0 l/m² 0,0 km/h (0 Bft) W-NW 292 ° 1,5 °C 2,8 °C
02.12.2017 14:53 23,4 °C 2,9 °C 45 % 91 % 1023,9 hPa 0,0 l/m² 0,0 km/h (0 Bft) W-NW 292 ° 1,6 °C 2,9 °C
02.12.2017 14:55 23,4 °C 2,8 °C 45 % 91 % 1023,9 hPa 0,0 l/m² 0,0 km/h (0 Bft) W-NW 292 ° 1,5 °C 2,8 °C
02.12.2017 14:57 23,4 °C 2,8 °C 45 % 91 % 1023,9 hPa 0,0 l/m² 0,0 km/h (0 Bft) W-NW 292 ° 1,5 °C 2,8 °C
02.12.2017 14:59 23,4 °C 2,9 °C 45 % 91 % 1024,0 hPa 0,0 l/m² 0,0 km/h (0 Bft) W-NW 292 ° 1,6 °C 2,9 °C
02.12.2017 15:01 23,4 °C 2,9 °C 45 % 91 % 1024,0 hPa 0,0 l/m² 0,0 km/h (0 Bft) W-NW 292 ° 1,6 °C 2,9 °C
02.12.2017 15:03 23,4 °C 2,9 °C 45 % 91 % 1024,1 hPa 0,0 l/m² 0,0 km/h (0 Bft) W-NW 292 ° 1,6 °C 2,9 °C
02.12.2017 15:05 23,4 °C 2,9 °C 45 % 91 % 1024,0 hPa 0,0 l/m² 0,0 km/h (0 Bft) W-NW 292 ° 1,6 °C 2,9 °C
02.12.2017 15:07 23,4 °C 2,8 °C 45 % 91 % 1024,1 hPa 0,0 l/m² 0,0 km/h (0 Bft) W-NW 292 ° 1,5 °C 2,8 °C
02.12.2017 15:09 23,4 °C 2,7 °C 45 % 91 % 1024,0 hPa 0,0 l/m² 0,0 km/h (0 Bft) W-NW 292 ° 1,4 °C 2,7 °C
02.12.2017 15:11 23,4 °C 2,6 °C 45 % 91 % 1024,0 hPa 0,0 l/m² 0,0 km/h (0 Bft) W-NW 292 ° 1,3 °C 2,6 °C
02.12.2017 15:13 23,4 °C 2,5 °C 45 % 91 % 1024,0 hPa 0,0 l/m² 0,0 km/h (0 Bft) W-NW 292 ° 1,2 °C 2,5 °C
02.12.2017 15:15 23,3 °C 2,4 °C 45 % 91 % 1023,9 hPa 0,0 l/m² 0,0 km/h (0 Bft) W-NW 292 ° 1,1 °C 2,4 °C
02.12.2017 15:17 23,4 °C 2,3 °C 46 % 91 % 1024,0 hPa 0,0 l/m² 0,0 km/h (0 Bft) W-NW 292 ° 1,0 °C 2,3 °C
02.12.2017 15:19 23,3 °C 2,3 °C 46 % 91 % 1024,0 hPa 0,0 l/m² 0,0 km/h (0 Bft) W-NW 292 ° 1,0 °C 2,3 °C
02.12.2017 15:21 23,3 °C 2,2 °C 46 % 91 % 1024,1 hPa 0,0 l/m² 0,0 km/h (0 Bft) W-NW 292 ° 0,9 °C 2,2 °C
02.12.2017 15:23 23,4 °C 2,1 °C 46 % 91 % 1024,0 hPa 0,0 l/m² 0,0 km/h (0 Bft) W-NW 292 ° 0,8 °C 2,1 °C
02.12.2017 15:25 23,3 °C 2,1 °C 46 % 91 % 1024,0 hPa 0,0 l/m² 0,0 km/h (0 Bft) W-NW 292 ° 0,8 °C 2,1 °C
02.12.2017 15:27 23,3 °C 2,1 °C 47 % 91 % 1023,9 hPa 0,0 l/m² 0,0 km/h (0 Bft) W-NW 292 ° 0,8 °C 2,1 °C
02.12.2017 15:29 23,4 °C 2,1 °C 47 % 91 % 1024,1 hPa 0,0 l/m² 0,0 km/h (0 Bft) W-NW 292 ° 0,8 °C 2,1 °C
02.12.2017 15:31 23,4 °C 1,9 °C 47 % 91 % 1024,1 hPa 0,0 l/m² 0,0 km/h (0 Bft) W-NW 292 ° 0,6 °C 1,9 °C
02.12.2017 15:33 23,3 °C 1,9 °C 47 % 91 % 1024,1 hPa 0,0 l/m² 0,0 km/h (0 Bft) W-NW 292 ° 0,6 °C 1,9 °C
02.12.2017 15:35 23,3 °C 1,9 °C 47 % 91 % 1024,1 hPa 0,0 l/m² 0,0 km/h (0 Bft) W-NW 292 ° 0,6 °C 1,9 °C
02.12.2017 15:37 23,3 °C 1,9 °C 47 % 91 % 1024,1 hPa 0,0 l/m² 0,0 km/h (0 Bft) W-NW 292 ° 0,6 °C 1,9 °C
02.12.2017 15:39 23,3 °C 1,9 °C 47 % 91 % 1024,1 hPa 0,0 l/m² 0,0 km/h (0 Bft) W-NW 292 ° 0,6 °C 1,9 °C
02.12.2017 15:41 23,3 °C 1,8 °C 47 % 91 % 1024,2 hPa 0,0 l/m² 0,0 km/h (0 Bft) W-NW 292 ° 0,5 °C 1,8 °C
02.12.2017 15:43 23,3 °C 1,8 °C 47 % 91 % 1024,3 hPa 0,0 l/m² 0,0 km/h (0 Bft) W-NW 292 ° 0,5 °C 1,8 °C
02.12.2017 15:45 23,3 °C 1,8 °C 47 % 92 % 1024,3 hPa 0,0 l/m² 0,0 km/h (0 Bft) W-NW 292 ° 0,6 °C 1,8 °C
02.12.2017 15:47 23,4 °C 1,8 °C 47 % 92 % 1024,1 hPa 0,0 l/m² 0,0 km/h (0 Bft) W-NW 292 ° 0,6 °C 1,8 °C
02.12.2017 15:49 23,4 °C 1,8 °C 47 % 92 % 1024,0 hPa 0,0 l/m² 0,0 km/h (0 Bft) W-NW 292 ° 0,6 °C 1,8 °C
02.12.2017 15:51 23,4 °C 1,8 °C 47 % 92 % 1024,1 hPa 0,0 l/m² 0,0 km/h (0 Bft) W-NW 292 ° 0,6 °C 1,8 °C
02.12.2017 15:53 23,4 °C 1,8 °C 47 % 92 % 1024,0 hPa 0,0 l/m² 0,0 km/h (0 Bft) W-NW 292 ° 0,6 °C 1,8 °C
02.12.2017 15:55 23,4 °C 1,8 °C 47 % 92 % 1024,1 hPa 0,0 l/m² 0,0 km/h (0 Bft) W-NW 292 ° 0,6 °C 1,8 °C
02.12.2017 15:57 23,4 °C 1,8 °C 47 % 92 % 1024,1 hPa 0,0 l/m² 0,0 km/h (0 Bft) W-NW 292 ° 0,6 °C 1,8 °C
02.12.2017 15:59 23,4 °C 1,8 °C 47 % 92 % 1024,1 hPa 0,0 l/m² 0,0 km/h (0 Bft) W-NW 292 ° 0,6 °C 1,8 °C
02.12.2017 16:01 23,4 °C 1,8 °C 47 % 92 % 1024,2 hPa 0,0 l/m² 0,0 km/h (0 Bft) W-NW 292 ° 0,6 °C 1,8 °C
02.12.2017 16:03 23,4 °C 1,7 °C 47 % 92 % 1024,3 hPa 0,0 l/m² 0,0 km/h (0 Bft) W-NW 292 ° 0,5 °C 1,7 °C
02.12.2017 16:05 23,4 °C 1,7 °C 47 % 92 % 1024,3 hPa 0,0 l/m² 0,0 km/h (0 Bft) W-NW 292 ° 0,5 °C 1,7 °C
02.12.2017 16:07 23,4 °C 1,6 °C 47 % 92 % 1024,3 hPa 0,0 l/m² 0,0 km/h (0 Bft) W-NW 292 ° 0,4 °C 1,6 °C
02.12.2017 16:09 23,4 °C 1,7 °C 47 % 92 % 1024,3 hPa 0,0 l/m² 0,0 km/h (0 Bft) W-NW 292 ° 0,5 °C 1,7 °C
02.12.2017 16:11 23,4 °C 1,6 °C 47 % 92 % 1024,4 hPa 0,0 l/m² 0,0 km/h (0 Bft) W-NW 292 ° 0,4 °C 1,6 °C
02.12.2017 16:13 23,5 °C 1,6 °C 47 % 92 % 1024,3 hPa 0,0 l/m² 0,0 km/h (0 Bft) W-NW 292 ° 0,4 °C 1,6 °C
02.12.2017 16:15 23,5 °C 1,6 °C 47 % 92 % 1024,4 hPa 0,0 l/m² 0,0 km/h (0 Bft) W-NW 292 ° 0,4 °C 1,6 °C
02.12.2017 16:17 23,5 °C 1,6 °C 47 % 92 % 1024,4 hPa 0,0 l/m² 0,0 km/h (0 Bft) W-NW 292 ° 0,4 °C 1,6 °C
02.12.2017 16:19 23,5 °C 1,6 °C 47 % 92 % 1024,3 hPa 0,0 l/m² 0,0 km/h (0 Bft) W-NW 292 ° 0,4 °C 1,6 °C
02.12.2017 16:21 23,5 °C 1,6 °C 47 % 92 % 1024,3 hPa 0,0 l/m² 0,0 km/h (0 Bft) W-NW 292 ° 0,4 °C 1,6 °C
02.12.2017 16:23 23,5 °C 1,7 °C 47 % 92 % 1024,3 hPa 0,0 l/m² 0,0 km/h (0 Bft) W-NW 292 ° 0,5 °C 1,7 °C
02.12.2017 16:25 23,5 °C 1,7 °C 47 % 92 % 1024,4 hPa 0,0 l/m² 0,0 km/h (0 Bft) W-NW 292 ° 0,5 °C 1,7 °C
02.12.2017 16:27 23,5 °C 1,7 °C 47 % 92 % 1024,4 hPa 0,0 l/m² 0,0 km/h (0 Bft) W-NW 292 ° 0,5 °C 1,7 °C
02.12.2017 16:29 23,5 °C 1,8 °C 47 % 92 % 1024,5 hPa 0,0 l/m² 0,0 km/h (0 Bft) W-NW 292 ° 0,6 °C 1,8 °C
02.12.2017 16:31 23,6 °C 1,8 °C 47 % 92 % 1024,6 hPa 0,0 l/m² 0,0 km/h (0 Bft) W-NW 292 ° 0,6 °C 1,8 °C
02.12.2017 16:33 23,6 °C 1,8 °C 47 % 92 % 1024,6 hPa 0,0 l/m² 1,8 km/h (1 Bft) W-NW 292 ° 0,6 °C 1,8 °C
02.12.2017 16:35 23,6 °C 1,7 °C 47 % 92 % 1024,7 hPa 0,0 l/m² 0,0 km/h (0 Bft) W-NW 292 ° 0,5 °C 1,7 °C
02.12.2017 16:37 23,6 °C 1,6 °C 47 % 92 % 1024,7 hPa 0,0 l/m² 2,2 km/h (1 Bft) W-NW 292 ° 0,4 °C 1,6 °C
02.12.2017 16:39 23,6 °C 1,6 °C 47 % 92 % 1024,7 hPa 0,0 l/m² 2,9 km/h (1 Bft) W 270 ° 0,4 °C 1,6 °C
02.12.2017 16:41 23,6 °C 1,6 °C 47 % 92 % 1024,8 hPa 0,0 l/m² 2,5 km/h (1 Bft) S-SO 157 ° 0,4 °C 1,6 °C
02.12.2017 16:43 23,6 °C 1,6 °C 47 % 92 % 1024,7 hPa 0,0 l/m² 3,6 km/h (1 Bft) S-SO 157 ° 0,4 °C 1,6 °C
02.12.2017 16:45 23,6 °C 1,5 °C 47 % 92 % 1024,8 hPa 0,0 l/m² 2,9 km/h (1 Bft) S-SO 157 ° 0,3 °C 1,5 °C
02.12.2017 16:47 23,6 °C 1,6 °C 47 % 92 % 1024,9 hPa 0,0 l/m² 0,0 km/h (0 Bft) S-SO 157 ° 0,4 °C 1,6 °C
02.12.2017 16:49 23,6 °C 1,6 °C 47 % 92 % 1024,8 hPa 0,0 l/m² 0,0 km/h (0 Bft) S-SO 157 ° 0,4 °C 1,6 °C
02.12.2017 16:51 23,6 °C 1,5 °C 47 % 92 % 1024,8 hPa 0,0 l/m² 3,6 km/h (1 Bft) S-SO 157 ° 0,3 °C 1,5 °C
02.12.2017 16:53 23,6 °C 1,6 °C 47 % 92 % 1024,8 hPa 0,0 l/m² 2,9 km/h (1 Bft) N 360 ° 0,4 °C 1,6 °C
02.12.2017 16:55 23,6 °C 1,6 °C 47 % 92 % 1024,8 hPa 0,0 l/m² 6,5 km/h (2 Bft) N 360 ° 0,4 °C 1,5 °C
02.12.2017 16:57 23,6 °C 1,6 °C 47 % 92 % 1024,8 hPa 0,0 l/m² 6,5 km/h (2 Bft) N 360 ° 0,4 °C 1,5 °C
02.12.2017 16:59 23,6 °C 1,5 °C 47 % 92 % 1024,9 hPa 0,0 l/m² 0,0 km/h (0 Bft) N 360 ° 0,3 °C 1,5 °C
02.12.2017 17:01 23,7 °C 1,6 °C 47 % 92 % 1024,8 hPa 0,0 l/m² 0,0 km/h (0 Bft) N 360 ° 0,4 °C 1,6 °C
02.12.2017 17:03 23,7 °C 1,5 °C 47 % 92 % 1024,8 hPa 0,0 l/m² 4,0 km/h (1 Bft) N 360 ° 0,3 °C 1,5 °C
02.12.2017 17:05 23,7 °C 1,5 °C 47 % 93 % 1024,8 hPa 0,0 l/m² 0,0 km/h (0 Bft) N 360 ° 0,5 °C 1,5 °C
02.12.2017 17:07 23,7 °C 1,5 °C 47 % 92 % 1024,8 hPa 0,0 l/m² 0,0 km/h (0 Bft) N 360 ° 0,3 °C 1,5 °C
02.12.2017 17:09 23,7 °C 1,5 °C 47 % 92 % 1024,9 hPa 0,0 l/m² 0,0 km/h (0 Bft) N 360 ° 0,3 °C 1,5 °C
02.12.2017 17:11 23,7 °C 1,5 °C 47 % 92 % 1024,8 hPa 0,0 l/m² 0,0 km/h (0 Bft) N 360 ° 0,3 °C 1,5 °C
02.12.2017 17:13 23,7 °C 1,5 °C 47 % 92 % 1024,9 hPa 0,0 l/m² 0,0 km/h (0 Bft) N 360 ° 0,3 °C 1,5 °C
02.12.2017 17:15 23,7 °C 1,5 °C 47 % 92 % 1024,9 hPa 0,0 l/m² 0,0 km/h (0 Bft) N 360 ° 0,3 °C 1,5 °C
02.12.2017 17:17 23,7 °C 1,5 °C 47 % 93 % 1024,9 hPa 0,0 l/m² 0,0 km/h (0 Bft) N 360 ° 0,5 °C 1,5 °C
02.12.2017 17:19 23,7 °C 1,5 °C 46 % 93 % 1024,9 hPa 0,0 l/m² 0,0 km/h (0 Bft) N 360 ° 0,5 °C 1,5 °C
02.12.2017 17:21 23,7 °C 1,6 °C 46 % 92 % 1024,9 hPa 0,0 l/m² 0,0 km/h (0 Bft) N 360 ° 0,4 °C 1,6 °C
02.12.2017 17:23 23,7 °C 1,6 °C 46 % 93 % 1024,9 hPa 0,0 l/m² 0,0 km/h (0 Bft) N 360 ° 0,6 °C 1,6 °C
02.12.2017 17:25 23,7 °C 1,5 °C 46 % 93 % 1024,9 hPa 0,0 l/m² 0,0 km/h (0 Bft) N 360 ° 0,5 °C 1,5 °C
02.12.2017 17:27 23,7 °C 1,5 °C 46 % 93 % 1024,9 hPa 0,0 l/m² 0,0 km/h (0 Bft) N 360 ° 0,5 °C 1,5 °C
02.12.2017 17:29 23,7 °C 1,5 °C 46 % 93 % 1024,9 hPa 0,0 l/m² 0,0 km/h (0 Bft) N 360 ° 0,5 °C 1,5 °C
02.12.2017 17:31 23,7 °C 1,5 °C 46 % 93 % 1025,0 hPa 0,0 l/m² 0,0 km/h (0 Bft) N 360 ° 0,5 °C 1,5 °C
02.12.2017 17:33 23,7 °C 1,5 °C 46 % 93 % 1024,8 hPa 0,0 l/m² 0,0 km/h (0 Bft) N 360 ° 0,5 °C 1,5 °C
02.12.2017 17:35 23,7 °C 1,5 °C 46 % 93 % 1024,8 hPa 0,0 l/m² 0,0 km/h (0 Bft) N 360 ° 0,5 °C 1,5 °C
02.12.2017 17:37 23,7 °C 1,5 °C 46 % 93 % 1024,9 hPa 0,0 l/m² 0,0 km/h (0 Bft) N 360 ° 0,5 °C 1,5 °C
02.12.2017 17:39 23,6 °C 1,5 °C 46 % 93 % 1024,9 hPa 0,0 l/m² 0,0 km/h (0 Bft) N 360 ° 0,5 °C 1,5 °C
02.12.2017 17:41 23,6 °C 1,5 °C 46 % 93 % 1024,9 hPa 0,0 l/m² 0,0 km/h (0 Bft) N 360 ° 0,5 °C 1,5 °C
02.12.2017 17:43 23,6 °C 1,5 °C 45 % 93 % 1024,9 hPa 0,0 l/m² 2,5 km/h (1 Bft) N 360 ° 0,5 °C 1,5 °C
02.12.2017 17:45 23,6 °C 1,5 °C 45 % 93 % 1024,9 hPa 0,0 l/m² 2,2 km/h (1 Bft) N 360 ° 0,5 °C 1,5 °C
02.12.2017 17:47 23,6 °C 1,5 °C 45 % 93 % 1024,8 hPa 0,0 l/m² 0,0 km/h (0 Bft) N 360 ° 0,5 °C 1,5 °C
02.12.2017 17:49 23,6 °C 1,5 °C 45 % 93 % 1024,9 hPa 0,0 l/m² 0,0 km/h (0 Bft) N 360 ° 0,5 °C 1,5 °C
02.12.2017 17:51 23,6 °C 1,5 °C 45 % 93 % 1024,9 hPa 0,0 l/m² 0,0 km/h (0 Bft) N 360 ° 0,5 °C 1,5 °C
02.12.2017 17:53 23,6 °C 1,5 °C 45 % 93 % 1024,9 hPa 0,0 l/m² 0,0 km/h (0 Bft) N 360 ° 0,5 °C 1,5 °C
02.12.2017 17:55 23,5 °C 1,4 °C 45 % 93 % 1024,9 hPa 0,0 l/m² 0,0 km/h (0 Bft) N 360 ° 0,4 °C 1,4 °C
02.12.2017 17:57 23,5 °C 1,4 °C 45 % 93 % 1025,0 hPa 0,0 l/m² 0,0 km/h (0 Bft) N 360 ° 0,4 °C 1,4 °C
02.12.2017 17:59 23,5 °C 1,4 °C 45 % 93 % 1025,0 hPa 0,0 l/m² 0,0 km/h (0 Bft) N 360 ° 0,4 °C 1,4 °C
02.12.2017 18:01 23,5 °C 1,4 °C 45 % 93 % 1025,0 hPa 0,0 l/m² 0,0 km/h (0 Bft) N 360 ° 0,4 °C 1,4 °C
02.12.2017 18:03 23,5 °C 1,4 °C 45 % 93 % 1025,0 hPa 0,0 l/m² 0,0 km/h (0 Bft) N 360 ° 0,4 °C 1,4 °C
02.12.2017 18:05 23,5 °C 1,4 °C 45 % 93 % 1025,0 hPa 0,0 l/m² 0,0 km/h (0 Bft) N 360 ° 0,4 °C 1,4 °C
02.12.2017 18:07 23,5 °C 1,4 °C 45 % 93 % 1025,1 hPa 0,0 l/m² 0,0 km/h (0 Bft) N 360 ° 0,4 °C 1,4 °C
02.12.2017 18:09 23,5 °C 1,4 °C 46 % 93 % 1025,0 hPa 0,0 l/m² 0,0 km/h (0 Bft) N 360 ° 0,4 °C 1,4 °C
02.12.2017 18:11 23,4 °C 1,4 °C 46 % 93 % 1025,0 hPa 0,0 l/m² 1,4 km/h (1 Bft) N 360 ° 0,4 °C 1,4 °C
02.12.2017 18:13 23,4 °C 1,4 °C 46 % 93 % 1025,0 hPa 0,0 l/m² 0,0 km/h (0 Bft) N 360 ° 0,4 °C 1,4 °C
02.12.2017 18:15 23,4 °C 1,4 °C 46 % 93 % 1025,1 hPa 0,0 l/m² 0,0 km/h (0 Bft) N 360 ° 0,4 °C 1,4 °C
02.12.2017 18:17 23,4 °C 1,4 °C 46 % 93 % 1025,0 hPa 0,0 l/m² 0,0 km/h (0 Bft) N 360 ° 0,4 °C 1,4 °C
02.12.2017 18:19 23,4 °C 1,4 °C 45 % 93 % 1025,0 hPa 0,0 l/m² 0,0 km/h (0 Bft) N 360 ° 0,4 °C 1,4 °C
02.12.2017 18:21 23,4 °C 1,4 °C 46 % 93 % 1025,0 hPa 0,0 l/m² 0,0 km/h (0 Bft) N 360 ° 0,4 °C 1,4 °C
02.12.2017 18:23 23,4 °C 1,4 °C 46 % 93 % 1025,0 hPa 0,0 l/m² 0,0 km/h (0 Bft) N 360 ° 0,4 °C 1,4 °C
02.12.2017 18:25 23,4 °C 1,4 °C 46 % 93 % 1025,0 hPa 0,0 l/m² 0,0 km/h (0 Bft) N 360 ° 0,4 °C 1,4 °C
02.12.2017 18:27 23,4 °C 1,4 °C 46 % 93 % 1025,0 hPa 0,0 l/m² 0,0 km/h (0 Bft) N 360 ° 0,4 °C 1,4 °C
02.12.2017 18:29 23,4 °C 1,4 °C 46 % 93 % 1025,1 hPa 0,0 l/m² 0,0 km/h (0 Bft) N 360 ° 0,4 °C 1,4 °C
02.12.2017 18:31 23,3 °C 1,5 °C 46 % 93 % 1025,0 hPa 0,0 l/m² 0,0 km/h (0 Bft) N 360 ° 0,5 °C 1,5 °C
02.12.2017 18:33 23,3 °C 1,5 °C 46 % 93 % 1025,0 hPa 0,0 l/m² 0,0 km/h (0 Bft) N 360 ° 0,5 °C 1,5 °C
02.12.2017 18:35 23,3 °C 1,5 °C 46 % 93 % 1025,0 hPa 0,0 l/m² 0,0 km/h (0 Bft) N 360 ° 0,5 °C 1,5 °C
02.12.2017 18:37 23,3 °C 1,5 °C 46 % 93 % 1025,1 hPa 0,0 l/m² 0,0 km/h (0 Bft) N 360 ° 0,5 °C 1,5 °C
02.12.2017 18:39 23,3 °C 1,5 °C 46 % 93 % 1025,0 hPa 0,0 l/m² 0,0 km/h (0 Bft) N 360 ° 0,5 °C 1,5 °C
02.12.2017 18:41 23,3 °C 1,5 °C 46 % 93 % 1025,2 hPa 0,0 l/m² 0,0 km/h (0 Bft) N 360 ° 0,5 °C 1,5 °C
02.12.2017 18:43 23,3 °C 1,4 °C 46 % 93 % 1025,0 hPa 0,0 l/m² 0,0 km/h (0 Bft) N 360 ° 0,4 °C 1,4 °C
02.12.2017 18:45 23,3 °C 1,5 °C 46 % 93 % 1025,2 hPa 0,0 l/m² 0,0 km/h (0 Bft) N 360 ° 0,5 °C 1,5 °C
02.12.2017 18:47 23,3 °C 1,5 °C 46 % 93 % 1025,2 hPa 0,0 l/m² 0,0 km/h (0 Bft) N 360 ° 0,5 °C 1,5 °C
02.12.2017 18:49 23,2 °C 1,4 °C 46 % 93 % 1025,2 hPa 0,0 l/m² 0,0 km/h (0 Bft) N 360 ° 0,4 °C 1,4 °C
02.12.2017 18:51 23,2 °C 1,4 °C 46 % 93 % 1025,3 hPa 0,0 l/m² 0,0 km/h (0 Bft) N 360 ° 0,4 °C 1,4 °C
02.12.2017 18:53 23,2 °C 1,4 °C 46 % 93 % 1025,3 hPa 0,0 l/m² 0,0 km/h (0 Bft) N 360 ° 0,4 °C 1,4 °C
02.12.2017 18:55 23,2 °C 1,4 °C 46 % 93 % 1025,3 hPa 0,0 l/m² 2,2 km/h (1 Bft) N 360 ° 0,4 °C 1,4 °C
02.12.2017 18:57 23,2 °C 1,4 °C 46 % 93 % 1025,3 hPa 0,0 l/m² 0,0 km/h (0 Bft) N 360 ° 0,4 °C 1,4 °C
02.12.2017 18:59 23,2 °C 1,4 °C 46 % 93 % 1025,2 hPa 0,0 l/m² 0,0 km/h (0 Bft) N 360 ° 0,4 °C 1,4 °C
02.12.2017 19:01 23,2 °C 1,4 °C 46 % 93 % 1025,1 hPa 0,0 l/m² 0,0 km/h (0 Bft) N 360 ° 0,4 °C 1,4 °C
02.12.2017 19:03 23,2 °C 1,4 °C 46 % 93 % 1025,2 hPa 0,0 l/m² 0,0 km/h (0 Bft) N 360 ° 0,4 °C 1,4 °C
02.12.2017 19:05 23,2 °C 1,3 °C 46 % 93 % 1025,2 hPa 0,0 l/m² 1,8 km/h (1 Bft) N 360 ° 0,3 °C 1,3 °C
02.12.2017 19:07 23,2 °C 1,3 °C 46 % 93 % 1025,2 hPa 0,0 l/m² 0,0 km/h (0 Bft) N 360 ° 0,3 °C 1,3 °C
02.12.2017 19:09 23,2 °C 1,3 °C 46 % 93 % 1025,2 hPa 0,0 l/m² 0,0 km/h (0 Bft) N 360 ° 0,3 °C 1,3 °C
02.12.2017 19:11 23,2 °C 1,3 °C 46 % 93 % 1025,2 hPa 0,0 l/m² 0,0 km/h (0 Bft) N 360 ° 0,3 °C 1,3 °C
02.12.2017 19:13 23,1 °C 1,3 °C 46 % 93 % 1025,2 hPa 0,0 l/m² 2,9 km/h (1 Bft) N 360 ° 0,3 °C 1,3 °C
02.12.2017 19:15 23,1 °C 1,3 °C 46 % 93 % 1025,2 hPa 0,0 l/m² 3,2 km/h (1 Bft) N 360 ° 0,3 °C 1,3 °C
02.12.2017 19:17 23,1 °C 1,3 °C 46 % 93 % 1025,1 hPa 0,0 l/m² 3,6 km/h (1 Bft) N-NW 337 ° 0,3 °C 1,3 °C
02.12.2017 19:19 23,1 °C 1,3 °C 46 % 93 % 1025,2 hPa 0,0 l/m² 4,0 km/h (1 Bft) NW 315 ° 0,3 °C 1,3 °C
02.12.2017 19:21 23,1 °C 1,3 °C 46 % 93 % 1025,2 hPa 0,0 l/m² 3,2 km/h (1 Bft) NW 315 ° 0,3 °C 1,3 °C
02.12.2017 19:23 23,1 °C 1,3 °C 46 % 93 % 1025,2 hPa 0,0 l/m² 3,2 km/h (1 Bft) NW 315 ° 0,3 °C 1,3 °C
02.12.2017 19:25 23,1 °C 1,3 °C 46 % 93 % 1025,2 hPa 0,0 l/m² 0,0 km/h (0 Bft) NW 315 ° 0,3 °C 1,3 °C
02.12.2017 19:27 23,1 °C 1,3 °C 46 % 93 % 1025,3 hPa 0,0 l/m² 0,0 km/h (0 Bft) NW 315 ° 0,3 °C 1,3 °C
02.12.2017 19:29 23,1 °C 1,3 °C 46 % 93 % 1025,2 hPa 0,0 l/m² 0,0 km/h (0 Bft) NW 315 ° 0,3 °C 1,3 °C
02.12.2017 19:31 23,1 °C 1,3 °C 46 % 93 % 1025,2 hPa 0,0 l/m² 7,6 km/h (2 Bft) NW 315 ° 0,3 °C 0,1 °C
02.12.2017 19:33 23,1 °C 1,3 °C 46 % 93 % 1025,2 hPa 0,0 l/m² 5,8 km/h (2 Bft) NW 315 ° 0,3 °C 1,3 °C
02.12.2017 19:35 23,1 °C 1,3 °C 46 % 93 % 1025,2 hPa 0,0 l/m² 5,4 km/h (2 Bft) N 360 ° 0,3 °C 1,3 °C
02.12.2017 19:37 23,0 °C 1,3 °C 46 % 93 % 1025,3 hPa 0,0 l/m² 5,8 km/h (2 Bft) N 360 ° 0,3 °C 1,3 °C
02.12.2017 19:39 23,0 °C 1,3 °C 46 % 93 % 1025,2 hPa 0,0 l/m² 5,0 km/h (1 Bft) N-NW 337 ° 0,3 °C 1,3 °C
02.12.2017 19:41 23,0 °C 1,3 °C 46 % 93 % 1025,2 hPa 0,0 l/m² 4,0 km/h (1 Bft) N-NW 337 ° 0,3 °C 1,3 °C
02.12.2017 19:43 23,0 °C 1,3 °C 46 % 93 % 1025,2 hPa 0,0 l/m² 5,0 km/h (1 Bft) NW 315 ° 0,3 °C 1,3 °C
02.12.2017 19:45 23,0 °C 1,3 °C 46 % 93 % 1025,2 hPa 0,0 l/m² 9,7 km/h (2 Bft) N-NW 337 ° 0,3 °C -1,8 °C
02.12.2017 19:47 23,0 °C 1,3 °C 46 % 93 % 1025,2 hPa 0,0 l/m² 5,8 km/h (2 Bft) N 360 ° 0,3 °C 1,3 °C
02.12.2017 19:49 23,0 °C 1,3 °C 46 % 93 % 1025,3 hPa 0,0 l/m² 3,6 km/h (1 Bft) N 360 ° 0,3 °C 1,3 °C
02.12.2017 19:51 23,0 °C 1,3 °C 46 % 93 % 1025,4 hPa 0,0 l/m² 6,1 km/h (2 Bft) N-NW 337 ° 0,3 °C 1,3 °C
02.12.2017 19:53 23,0 °C 1,2 °C 46 % 93 % 1025,4 hPa 0,0 l/m² 9,4 km/h (2 Bft) N 360 ° 0,2 °C -1,6 °C
02.12.2017 19:55 23,0 °C 1,2 °C 46 % 93 % 1025,4 hPa 0,0 l/m² 5,8 km/h (2 Bft) N-NW 337 ° 0,2 °C 1,2 °C
02.12.2017 19:57 23,0 °C 1,2 °C 46 % 93 % 1025,3 hPa 0,0 l/m² 5,8 km/h (2 Bft) N-NW 337 ° 0,2 °C 1,2 °C
02.12.2017 19:59 23,0 °C 1,2 °C 46 % 93 % 1025,3 hPa 0,0 l/m² 5,8 km/h (2 Bft) N-NW 337 ° 0,2 °C 1,2 °C
02.12.2017 20:01 23,0 °C 1,2 °C 46 % 93 % 1025,4 hPa 0,0 l/m² 5,4 km/h (2 Bft) N 360 ° 0,2 °C 1,2 °C
02.12.2017 20:03 23,0 °C 1,2 °C 46 % 93 % 1025,4 hPa 0,0 l/m² 5,8 km/h (2 Bft) N-NW 337 ° 0,2 °C 1,2 °C
02.12.2017 20:05 23,0 °C 1,1 °C 46 % 93 % 1025,2 hPa 0,0 l/m² 3,2 km/h (1 Bft) N 360 ° 0,1 °C 1,1 °C
02.12.2017 20:07 23,0 °C 1,1 °C 46 % 93 % 1025,2 hPa 0,0 l/m² 5,0 km/h (1 Bft) N 360 ° 0,1 °C 1,1 °C
02.12.2017 20:09 23,0 °C 1,1 °C 46 % 93 % 1025,3 hPa 0,0 l/m² 4,7 km/h (1 Bft) N 360 ° 0,1 °C 1,1 °C
02.12.2017 20:11 23,0 °C 1,1 °C 46 % 93 % 1025,3 hPa 0,0 l/m² 2,2 km/h (1 Bft) N 360 ° 0,1 °C 1,1 °C
02.12.2017 20:13 23,0 °C 1,1 °C 46 % 93 % 1025,3 hPa 0,0 l/m² 1,4 km/h (1 Bft) N 360 ° 0,1 °C 1,1 °C
02.12.2017 20:15 22,9 °C 1,1 °C 46 % 93 % 1025,2 hPa 0,0 l/m² 0,0 km/h (0 Bft) N 360 ° 0,1 °C 1,1 °C
02.12.2017 20:17 23,0 °C 1,0 °C 46 % 93 % 1025,2 hPa 0,0 l/m² 0,0 km/h (0 Bft) N 360 ° -0,0 °C 1,0 °C
02.12.2017 20:19 22,9 °C 1,0 °C 46 % 93 % 1025,2 hPa 0,0 l/m² 0,0 km/h (0 Bft) N 360 ° -0,0 °C 1,0 °C
02.12.2017 20:21 22,9 °C 1,0 °C 46 % 93 % 1025,2 hPa 0,0 l/m² 0,0 km/h (0 Bft) N 360 ° -0,0 °C 1,0 °C
02.12.2017 20:23 22,9 °C 1,0 °C 46 % 93 % 1025,2 hPa 0,0 l/m² 0,0 km/h (0 Bft) N 360 ° -0,0 °C 1,0 °C
02.12.2017 20:25 22,9 °C 0,9 °C 46 % 93 % 1025,2 hPa 0,0 l/m² 0,0 km/h (0 Bft) N 360 ° -0,1 °C 0,9 °C
02.12.2017 20:27 22,9 °C 0,9 °C 46 % 93 % 1025,2 hPa 0,0 l/m² 0,0 km/h (0 Bft) N 360 ° -0,1 °C 0,9 °C
02.12.2017 20:29 22,9 °C 0,9 °C 46 % 93 % 1025,2 hPa 0,0 l/m² 0,0 km/h (0 Bft) N 360 ° -0,1 °C 0,9 °C
02.12.2017 20:31 22,9 °C 0,9 °C 46 % 93 % 1025,1 hPa 0,0 l/m² 0,0 km/h (0 Bft) N 360 ° -0,1 °C 0,9 °C
02.12.2017 20:33 22,9 °C 0,9 °C 46 % 93 % 1025,2 hPa 0,0 l/m² 0,0 km/h (0 Bft) N 360 ° -0,1 °C 0,9 °C
02.12.2017 20:35 22,9 °C 0,9 °C 46 % 93 % 1025,2 hPa 0,0 l/m² 0,0 km/h (0 Bft) N 360 ° -0,1 °C 0,9 °C
02.12.2017 20:37 22,9 °C 0,9 °C 46 % 93 % 1025,2 hPa 0,0 l/m² 0,0 km/h (0 Bft) N 360 ° -0,1 °C 0,9 °C
02.12.2017 20:39 22,9 °C 0,9 °C 46 % 93 % 1025,2 hPa 0,0 l/m² 0,0 km/h (0 Bft) N 360 ° -0,1 °C 0,9 °C
02.12.2017 20:41 22,9 °C 0,9 °C 46 % 93 % 1025,0 hPa 0,0 l/m² 2,2 km/h (1 Bft) N-NW 337 ° -0,1 °C 0,9 °C
02.12.2017 20:43 22,9 °C 0,9 °C 46 % 93 % 1025,0 hPa 0,0 l/m² 0,0 km/h (0 Bft) W-NW 292 ° -0,1 °C 0,9 °C
02.12.2017 20:45 22,9 °C 0,9 °C 46 % 93 % 1024,9 hPa 0,0 l/m² 2,2 km/h (1 Bft) W-NW 292 ° -0,1 °C 0,9 °C
02.12.2017 20:47 22,9 °C 0,9 °C 46 % 93 % 1025,0 hPa 0,0 l/m² 0,0 km/h (0 Bft) W-NW 292 ° -0,1 °C 0,9 °C
02.12.2017 20:49 22,9 °C 0,9 °C 46 % 93 % 1024,9 hPa 0,0 l/m² 4,0 km/h (1 Bft) W 270 ° -0,1 °C 0,9 °C
02.12.2017 20:51 22,9 °C 0,9 °C 46 % 93 % 1025,0 hPa 0,0 l/m² 5,4 km/h (2 Bft) W 270 ° -0,1 °C 0,9 °C
02.12.2017 20:53 22,9 °C 0,8 °C 46 % 93 % 1025,0 hPa 0,0 l/m² 3,6 km/h (1 Bft) W 270 ° -0,2 °C 0,8 °C
02.12.2017 20:55 22,9 °C 0,8 °C 46 % 93 % 1025,0 hPa 0,0 l/m² 0,0 km/h (0 Bft) W 270 ° -0,2 °C 0,8 °C
02.12.2017 20:57 22,9 °C 0,8 °C 46 % 93 % 1024,9 hPa 0,0 l/m² 1,8 km/h (1 Bft) W 270 ° -0,2 °C 0,8 °C
02.12.2017 20:59 22,9 °C 0,8 °C 46 % 93 % 1025,0 hPa 0,0 l/m² 1,8 km/h (1 Bft) W 270 ° -0,2 °C 0,8 °C
02.12.2017 21:01 22,8 °C 0,8 °C 46 % 93 % 1025,0 hPa 0,0 l/m² 4,3 km/h (1 Bft) W 270 ° -0,2 °C 0,8 °C
02.12.2017 21:03 22,8 °C 0,8 °C 46 % 93 % 1025,0 hPa 0,0 l/m² 1,8 km/h (1 Bft) W 270 ° -0,2 °C 0,8 °C
02.12.2017 21:05 22,9 °C 0,8 °C 46 % 93 % 1025,0 hPa 0,0 l/m² 0,0 km/h (0 Bft) W 270 ° -0,2 °C 0,8 °C
02.12.2017 21:07 22,9 °C 0,8 °C 46 % 93 % 1025,0 hPa 0,0 l/m² 2,2 km/h (1 Bft) W 270 ° -0,2 °C 0,8 °C
02.12.2017 21:09 22,9 °C 0,8 °C 46 % 93 % 1025,0 hPa 0,0 l/m² 0,0 km/h (0 Bft) W 270 ° -0,2 °C 0,8 °C
02.12.2017 21:11 22,9 °C 0,7 °C 46 % 93 % 1025,1 hPa 0,0 l/m² 1,8 km/h (1 Bft) W 270 ° -0,3 °C 0,7 °C
02.12.2017 21:13 22,9 °C 0,7 °C 46 % 93 % 1025,1 hPa 0,0 l/m² 0,0 km/h (0 Bft) W 270 ° -0,3 °C 0,7 °C
02.12.2017 21:15 22,9 °C 0,7 °C 46 % 93 % 1025,1 hPa 0,0 l/m² 0,0 km/h (0 Bft) W 270 ° -0,3 °C 0,7 °C
02.12.2017 21:17 22,9 °C 0,7 °C 46 % 93 % 1025,0 hPa 0,0 l/m² 0,0 km/h (0 Bft) W 270 ° -0,3 °C 0,7 °C
02.12.2017 21:19 22,9 °C 0,7 °C 46 % 93 % 1025,0 hPa 0,0 l/m² 0,0 km/h (0 Bft) W 270 ° -0,3 °C 0,7 °C
02.12.2017 21:21 22,9 °C 0,7 °C 46 % 93 % 1025,0 hPa 0,0 l/m² 0,0 km/h (0 Bft) W 270 ° -0,3 °C 0,7 °C
02.12.2017 21:23 22,9 °C 0,7 °C 46 % 93 % 1025,0 hPa 0,0 l/m² 0,0 km/h (0 Bft) W 270 ° -0,3 °C 0,7 °C
02.12.2017 21:25 22,9 °C 0,6 °C 46 % 93 % 1025,0 hPa 0,0 l/m² 0,0 km/h (0 Bft) W 270 ° -0,4 °C 0,6 °C
02.12.2017 21:27 22,9 °C 0,7 °C 46 % 93 % 1024,8 hPa 0,0 l/m² 0,0 km/h (0 Bft) W 270 ° -0,3 °C 0,7 °C
02.12.2017 21:29 22,9 °C 0,7 °C 46 % 93 % 1024,8 hPa 0,0 l/m² 0,0 km/h (0 Bft) W 270 ° -0,3 °C 0,7 °C
02.12.2017 21:31 22,9 °C 0,7 °C 46 % 93 % 1024,8 hPa 0,0 l/m² 0,0 km/h (0 Bft) W 270 ° -0,3 °C 0,7 °C
02.12.2017 21:33 22,9 °C 0,6 °C 46 % 93 % 1024,8 hPa 0,0 l/m² 0,0 km/h (0 Bft) W 270 ° -0,4 °C 0,6 °C
02.12.2017 21:35 22,9 °C 0,6 °C 46 % 93 % 1024,8 hPa 0,0 l/m² 0,0 km/h (0 Bft) W 270 ° -0,4 °C 0,6 °C
02.12.2017 21:37 22,9 °C 0,6 °C 46 % 93 % 1024,9 hPa 0,0 l/m² 2,2 km/h (1 Bft) W 270 ° -0,4 °C 0,6 °C
02.12.2017 21:39 22,9 °C 0,6 °C 46 % 93 % 1024,8 hPa 0,0 l/m² 3,2 km/h (1 Bft) S-SW 202 ° -0,4 °C 0,6 °C
02.12.2017 21:41 22,9 °C 0,6 °C 46 % 93 % 1024,8 hPa 0,0 l/m² 2,5 km/h (1 Bft) S-SW 202 ° -0,4 °C 0,6 °C
02.12.2017 21:43 22,9 °C 0,6 °C 46 % 93 % 1024,7 hPa 0,0 l/m² 2,5 km/h (1 Bft) S-SW 202 ° -0,4 °C 0,6 °C
02.12.2017 21:45 22,9 °C 0,6 °C 46 % 93 % 1024,8 hPa 0,0 l/m² 3,2 km/h (1 Bft) S-SW 202 ° -0,4 °C 0,6 °C
02.12.2017 21:47 22,9 °C 0,6 °C 46 % 93 % 1024,7 hPa 0,0 l/m² 3,6 km/h (1 Bft) S-SW 202 ° -0,4 °C 0,6 °C
02.12.2017 21:49 22,9 °C 0,6 °C 46 % 93 % 1024,8 hPa 0,0 l/m² 0,0 km/h (0 Bft) S-SW 202 ° -0,4 °C 0,6 °C
02.12.2017 21:51 22,9 °C 0,5 °C 46 % 93 % 1024,7 hPa 0,0 l/m² 0,0 km/h (0 Bft) S-SW 202 ° -0,5 °C 0,5 °C
02.12.2017 21:53 22,9 °C 0,5 °C 46 % 93 % 1024,7 hPa 0,0 l/m² 0,0 km/h (0 Bft) S-SW 202 ° -0,5 °C 0,5 °C
02.12.2017 21:55 22,9 °C 0,5 °C 46 % 93 % 1024,8 hPa 0,0 l/m² 0,0 km/h (0 Bft) S-SW 202 ° -0,5 °C 0,5 °C
02.12.2017 21:57 22,9 °C 0,5 °C 46 % 93 % 1024,8 hPa 0,0 l/m² 3,6 km/h (1 Bft) S 180 ° -0,5 °C 0,5 °C
02.12.2017 21:59 22,9 °C 0,5 °C 46 % 93 % 1024,8 hPa 0,0 l/m² 3,6 km/h (1 Bft) S 180 ° -0,5 °C 0,5 °C
02.12.2017 22:01 22,9 °C 0,5 °C 46 % 93 % 1024,8 hPa 0,0 l/m² 3,6 km/h (1 Bft) S 180 ° -0,5 °C 0,5 °C
02.12.2017 22:03 22,9 °C 0,5 °C 46 % 93 % 1024,8 hPa 0,0 l/m² 3,6 km/h (1 Bft) S 180 ° -0,5 °C 0,5 °C
02.12.2017 22:05 22,9 °C 0,5 °C 46 % 93 % 1024,8 hPa 0,0 l/m² 2,5 km/h (1 Bft) S 180 ° -0,5 °C 0,5 °C
02.12.2017 22:07 22,9 °C 0,5 °C 46 % 93 % 1024,8 hPa 0,0 l/m² 2,5 km/h (1 Bft) S 180 ° -0,5 °C 0,5 °C
02.12.2017 22:09 22,9 °C 0,5 °C 46 % 93 % 1024,8 hPa 0,0 l/m² 2,5 km/h (1 Bft) S 180 ° -0,5 °C 0,5 °C
02.12.2017 22:11 22,9 °C 0,5 °C 46 % 94 % 1024,9 hPa 0,0 l/m² 2,5 km/h (1 Bft) S 180 ° -0,4 °C 0,5 °C
02.12.2017 22:13 22,9 °C 0,5 °C 46 % 94 % 1024,8 hPa 0,0 l/m² 2,5 km/h (1 Bft) S 180 ° -0,4 °C 0,5 °C
02.12.2017 22:15 22,9 °C 0,5 °C 46 % 94 % 1024,8 hPa 0,0 l/m² 0,0 km/h (0 Bft) S-SO 157 ° -0,4 °C 0,5 °C
02.12.2017 22:17 22,9 °C 0,6 °C 46 % 94 % 1024,7 hPa 0,0 l/m² 0,0 km/h (0 Bft) S-SO 157 ° -0,3 °C 0,6 °C
02.12.2017 22:19 23,0 °C 0,5 °C 46 % 94 % 1024,6 hPa 0,0 l/m² 0,0 km/h (0 Bft) S-SO 157 ° -0,4 °C 0,5 °C
02.12.2017 22:21 23,0 °C 0,5 °C 46 % 94 % 1024,7 hPa 0,0 l/m² 0,0 km/h (0 Bft) S-SO 157 ° -0,4 °C 0,5 °C
02.12.2017 22:23 23,0 °C 0,5 °C 46 % 94 % 1024,7 hPa 0,0 l/m² 0,0 km/h (0 Bft) S-SO 157 ° -0,4 °C 0,5 °C
02.12.2017 22:25 23,0 °C 0,6 °C 46 % 94 % 1024,7 hPa 0,0 l/m² 0,0 km/h (0 Bft) S-SO 157 ° -0,3 °C 0,6 °C
02.12.2017 22:27 23,0 °C 0,6 °C 46 % 94 % 1024,6 hPa 0,0 l/m² 0,0 km/h (0 Bft) S-SO 157 ° -0,3 °C 0,6 °C
02.12.2017 22:29 23,0 °C 0,6 °C 46 % 94 % 1024,7 hPa 0,0 l/m² 0,0 km/h (0 Bft) S-SO 157 ° -0,3 °C 0,6 °C
02.12.2017 22:31 23,0 °C 0,6 °C 46 % 94 % 1024,6 hPa 0,0 l/m² 0,0 km/h (0 Bft) S-SO 157 ° -0,3 °C 0,6 °C
02.12.2017 22:33 23,0 °C 0,6 °C 46 % 94 % 1024,6 hPa 0,0 l/m² 0,0 km/h (0 Bft) S-SO 157 ° -0,3 °C 0,6 °C
02.12.2017 22:35 23,0 °C 0,5 °C 46 % 94 % 1024,7 hPa 0,0 l/m² 0,0 km/h (0 Bft) S-SO 157 ° -0,4 °C 0,5 °C
02.12.2017 22:37 23,0 °C 0,5 °C 46 % 94 % 1024,7 hPa 0,0 l/m² 0,0 km/h (0 Bft) S-SO 157 ° -0,4 °C 0,5 °C
02.12.2017 22:39 23,0 °C 0,5 °C 46 % 94 % 1024,6 hPa 0,0 l/m² 0,0 km/h (0 Bft) S-SO 157 ° -0,4 °C 0,5 °C
02.12.2017 22:41 23,0 °C 0,5 °C 46 % 94 % 1024,6 hPa 0,0 l/m² 0,0 km/h (0 Bft) S-SO 157 ° -0,4 °C 0,5 °C
02.12.2017 22:43 23,0 °C 0,5 °C 46 % 94 % 1024,7 hPa 0,0 l/m² 0,0 km/h (0 Bft) S-SO 157 ° -0,4 °C 0,5 °C
02.12.2017 22:45 23,0 °C 0,5 °C 46 % 94 % 1024,6 hPa 0,0 l/m² 0,0 km/h (0 Bft) S-SO 157 ° -0,4 °C 0,5 °C
02.12.2017 22:47 23,0 °C 0,5 °C 46 % 94 % 1024,7 hPa 0,0 l/m² 3,2 km/h (1 Bft) S-SO 157 ° -0,4 °C 0,5 °C
02.12.2017 22:49 23,0 °C 0,5 °C 46 % 94 % 1024,7 hPa 0,0 l/m² 5,0 km/h (1 Bft) N 360 ° -0,4 °C 0,5 °C
02.12.2017 22:51 23,0 °C 0,5 °C 46 % 94 % 1024,7 hPa 0,0 l/m² 3,6 km/h (1 Bft) N 360 ° -0,4 °C 0,5 °C
02.12.2017 22:53 23,0 °C 0,5 °C 46 % 94 % 1024,7 hPa 0,0 l/m² 0,0 km/h (0 Bft) N 360 ° -0,4 °C 0,5 °C
02.12.2017 22:55 23,0 °C 0,4 °C 46 % 94 % 1024,8 hPa 0,0 l/m² 1,4 km/h (1 Bft) N 360 ° -0,5 °C 0,4 °C
02.12.2017 22:57 23,0 °C 0,4 °C 46 % 94 % 1024,8 hPa 0,0 l/m² 0,0 km/h (0 Bft) N 360 ° -0,5 °C 0,4 °C
02.12.2017 22:59 23,0 °C 0,4 °C 46 % 94 % 1024,8 hPa 0,0 l/m² 0,0 km/h (0 Bft) N 360 ° -0,5 °C 0,4 °C
02.12.2017 23:01 23,0 °C 0,4 °C 46 % 94 % 1024,8 hPa 0,0 l/m² 0,0 km/h (0 Bft) N 360 ° -0,5 °C 0,4 °C
02.12.2017 23:03 23,0 °C 0,4 °C 46 % 94 % 1024,8 hPa 0,0 l/m² 0,0 km/h (0 Bft) N 360 ° -0,5 °C 0,4 °C
02.12.2017 23:05 23,0 °C 0,4 °C 46 % 94 % 1024,7 hPa 0,0 l/m² 0,0 km/h (0 Bft) N 360 ° -0,5 °C 0,4 °C
02.12.2017 23:07 23,0 °C 0,4 °C 46 % 94 % 1024,7 hPa 0,0 l/m² 0,0 km/h (0 Bft) N 360 ° -0,5 °C 0,4 °C
02.12.2017 23:09 23,0 °C 0,4 °C 46 % 94 % 1024,7 hPa 0,0 l/m² 4,3 km/h (1 Bft) N 360 ° -0,5 °C 0,4 °C
02.12.2017 23:11 23,0 °C 0,4 °C 46 % 94 % 1024,7 hPa 0,0 l/m² 0,0 km/h (0 Bft) N 360 ° -0,5 °C 0,4 °C
02.12.2017 23:13 23,0 °C 0,4 °C 46 % 94 % 1024,7 hPa 0,0 l/m² 0,0 km/h (0 Bft) N 360 ° -0,5 °C 0,4 °C
02.12.2017 23:15 23,0 °C 0,4 °C 46 % 94 % 1024,7 hPa 0,0 l/m² 0,0 km/h (0 Bft) N 360 ° -0,5 °C 0,4 °C
02.12.2017 23:17 23,0 °C 0,4 °C 46 % 94 % 1024,7 hPa 0,0 l/m² 0,0 km/h (0 Bft) N 360 ° -0,5 °C 0,4 °C
02.12.2017 23:19 23,0 °C 0,4 °C 46 % 94 % 1024,7 hPa 0,0 l/m² 0,0 km/h (0 Bft) N 360 ° -0,5 °C 0,4 °C
02.12.2017 23:21 23,0 °C 0,4 °C 46 % 94 % 1024,7 hPa 0,0 l/m² 0,0 km/h (0 Bft) N 360 ° -0,5 °C 0,4 °C
02.12.2017 23:23 22,9 °C 0,4 °C 46 % 94 % 1024,7 hPa 0,0 l/m² 0,0 km/h (0 Bft) N 360 ° -0,5 °C 0,4 °C
02.12.2017 23:25 23,0 °C 0,4 °C 46 % 94 % 1024,7 hPa 0,0 l/m² 0,0 km/h (0 Bft) N 360 ° -0,5 °C 0,4 °C
02.12.2017 23:27 22,9 °C 0,4 °C 46 % 94 % 1024,8 hPa 0,0 l/m² 0,0 km/h (0 Bft) N 360 ° -0,5 °C 0,4 °C
02.12.2017 23:29 23,0 °C 0,4 °C 46 % 94 % 1024,7 hPa 0,0 l/m² 0,0 km/h (0 Bft) N 360 ° -0,5 °C 0,4 °C
02.12.2017 23:31 22,9 °C 0,4 °C 46 % 94 % 1024,7 hPa 0,0 l/m² 0,0 km/h (0 Bft) O 90 ° -0,5 °C 0,4 °C
02.12.2017 23:33 22,9 °C 0,4 °C 46 % 94 % 1024,6 hPa 0,0 l/m² 0,0 km/h (0 Bft) O 90 ° -0,5 °C 0,4 °C
02.12.2017 23:35 22,9 °C 0,4 °C 46 % 94 % 1024,7 hPa 0,0 l/m² 0,0 km/h (0 Bft) O 90 ° -0,5 °C 0,4 °C
02.12.2017 23:37 22,9 °C 0,4 °C 46 % 94 % 1024,7 hPa 0,0 l/m² 1,4 km/h (1 Bft) O 90 ° -0,5 °C 0,4 °C
02.12.2017 23:39 22,9 °C 0,3 °C 45 % 94 % 1024,6 hPa 0,0 l/m² 2,2 km/h (1 Bft) O 90 ° -0,5 °C 0,3 °C
02.12.2017 23:41 22,9 °C 0,3 °C 46 % 94 % 1024,5 hPa 0,0 l/m² 2,2 km/h (1 Bft) O 90 ° -0,5 °C 0,3 °C
02.12.2017 23:43 22,9 °C 0,3 °C 46 % 94 % 1024,5 hPa 0,0 l/m² 2,2 km/h (1 Bft) O 90 ° -0,5 °C 0,3 °C
02.12.2017 23:45 22,9 °C 0,3 °C 45 % 94 % 1024,5 hPa 0,0 l/m² 0,0 km/h (0 Bft) O 90 ° -0,5 °C 0,3 °C
02.12.2017 23:47 22,9 °C 0,2 °C 45 % 94 % 1024,5 hPa 0,0 l/m² 0,0 km/h (0 Bft) O 90 ° -0,6 °C 0,2 °C
02.12.2017 23:49 22,9 °C 0,1 °C 45 % 94 % 1024,5 hPa 0,0 l/m² 0,0 km/h (0 Bft) O 90 ° -0,7 °C 0,1 °C
02.12.2017 23:51 22,9 °C 0,1 °C 45 % 94 % 1024,5 hPa 0,0 l/m² 3,2 km/h (1 Bft) O 90 ° -0,7 °C 0,1 °C
02.12.2017 23:53 22,9 °C 0,1 °C 45 % 94 % 1024,6 hPa 0,0 l/m² 3,2 km/h (1 Bft) O 90 ° -0,7 °C 0,1 °C
02.12.2017 23:55 22,9 °C 0,1 °C 45 % 94 % 1024,5 hPa 0,0 l/m² 3,2 km/h (1 Bft) O 90 ° -0,7 °C 0,1 °C
02.12.2017 23:57 22,9 °C 0,1 °C 46 % 94 % 1024,7 hPa 0,0 l/m² 2,5 km/h (1 Bft) O 90 ° -0,7 °C 0,1 °C
02.12.2017 23:59 22,9 °C 0,1 °C 46 % 94 % 1024,7 hPa 0,0 l/m² 2,5 km/h (1 Bft) O 90 ° -0,7 °C 0,1 °C
_ Min-Zeit 21:03 09:33 11:39 15:43 00:05 - 23:49 - - 09:33 19:45
Minimum _ 22,8 °C -0,1 °C 32 % 91 % 1019,8 hPa - 0,0 km/h (0 Bft) - - -0,9 °C -1,8 °C
_ Max-Zeit 11:33 15:05 11:29 12:11 20:03 23:59 19:45 - - 14:17 15:05
Maximum _ 23,8 °C 2,9 °C 49 % 95 % 1025,4 hPa 0,0 l/m² 9,7 km/h
N-NW (2 Bft)
- - 1,9 °C 2,9 °C
Durchschnitt _ 23,2 °C 0,8 °C 46 % 93 % 1023,6 hPa #0,0 l/m² 0,9 km/h (0 Bft) S-SW - -0,1 °C 0,8 °C
© 2009 Mathias Hoßbach